Latitude: N 50° 09' 49" Longitude: W 05° 11' 53" Elevation: 168m ASL

There are 35 visitors online

Adverts

<- Previous Day | Today | Next Day ->

All Data for 24 September 2017

Time
A - D
Temp
A - D
Dew Point
A - D
Humidity
A - D
Pressure
A - D
Wind
A - D
Wind Dir Gust
A - D
Rain Rate
A - D
Rain Total
00:00 15.1 15.0 99 1015.9 8.3 SE 9.8 0.0 0.0
00:00 15.1 15.0 99 1015.9 8.3 SE 9.8 0.0 0.0
00:02 15.1 15.0 99 1015.9 8.3 SE 9.8 0.0 0.0
00:03 15.1 15.0 99 1015.9 8.3 SE 9.8 0.0 0.0
00:04 15.1 15.0 99 1016.0 8.3 SE 8.3 0.0 0.0
00:04 15.1 15.0 99 1016.0 8.3 SE 8.3 0.0 0.0
00:06 15.1 15.0 99 1015.8 8.3 SE 8.3 0.0 0.0
00:07 15.1 15.0 99 1016.0 7.6 SE 8.3 0.0 0.0
00:08 15.1 15.0 99 1016.0 8.3 SE 8.3 0.0 0.0
00:08 15.1 15.0 99 1016.0 8.3 SE 8.3 0.0 0.0
00:10 15.1 15.0 99 1015.9 10.7 S 10.7 0.0 0.0
00:11 15.1 15.0 99 1015.9 6.9 SE 10.7 0.0 0.0
00:12 15.1 15.0 99 1015.9 7.6 SE 10.7 0.0 0.0
00:13 15.1 15.0 99 1015.9 6.9 SE 10.7 0.0 0.0
00:14 15.1 15.0 99 1015.8 6.0 SE 10.7 0.0 0.0
00:15 15.1 15.0 99 1015.7 10.7 S 10.7 0.0 0.0
00:16 15.1 15.0 99 1015.9 7.6 SE 10.7 0.0 0.0
00:17 15.1 15.0 99 1015.9 9.8 S 10.7 0.0 0.0
00:18 15.1 15.0 99 1015.8 6.9 S 10.7 0.0 0.0
00:19 15.0 14.9 99 1015.9 9.8 SE 10.7 0.0 0.0
00:20 15.1 15.0 99 1015.9 7.6 SE 10.7 0.0 0.0
00:21 15.0 14.9 99 1015.8 8.3 SE 10.7 0.0 0.0
00:22 15.1 15.0 99 1015.9 6.9 SE 10.7 0.0 0.0
00:23 15.0 14.9 99 1015.8 6.0 SE 10.7 0.0 0.0
00:24 15.0 14.9 99 1015.8 8.3 SE 11.4 0.0 0.0
00:25 15.0 14.9 99 1015.7 7.6 S 11.4 0.0 0.0
00:26 15.0 14.9 99 1015.9 8.3 SE 11.4 0.0 0.0
00:27 15.0 14.9 99 1015.8 5.4 SE 11.4 0.0 0.0
00:28 15.0 14.9 99 1015.8 8.3 S 11.4 0.0 0.0
00:29 15.0 14.9 99 1015.8 6.0 S 11.4 0.0 0.0
00:30 15.0 14.9 99 1015.8 7.6 SE 11.4 0.0 0.0
00:31 15.0 14.9 99 1015.7 9.8 SE 11.4 0.0 0.0
00:32 15.0 14.9 99 1015.9 4.5 SE 11.4 0.0 0.0
00:33 15.0 14.9 99 1015.8 5.4 S 11.4 0.0 0.0
00:33 15.0 14.9 99 1015.8 5.4 S 11.4 0.0 0.0
00:35 15.0 14.9 99 1015.8 9.8 SE 9.8 0.0 0.0
00:36 15.0 14.9 99 1015.8 6.9 SE 9.8 0.0 0.0
00:37 15.0 14.9 99 1015.8 12.1 SE 12.1 0.0 0.0
00:38 15.0 14.9 99 1015.9 10.7 S 12.1 0.0 0.0
00:39 15.0 14.9 99 1015.8 9.2 S 12.1 0.0 0.0
00:40 15.0 14.9 99 1015.9 13.0 SE 13.0 0.0 0.0
00:41 15.0 14.9 99 1015.8 9.8 SE 13.0 0.0 0.0
00:42 15.0 14.9 99 1015.8 8.3 SE 13.0 0.0 0.0
00:43 15.0 14.9 99 1015.9 8.3 S 13.0 0.0 0.0
00:44 15.0 14.9 99 1015.8 6.0 SE 13.0 0.0 0.0
00:45 15.0 14.9 99 1015.9 7.6 SE 13.0 0.0 0.0
00:46 15.0 14.9 99 1015.7 7.6 SE 13.0 0.0 0.0
00:47 15.0 14.9 99 1015.8 7.6 S 13.0 0.0 0.0
00:48 15.0 14.9 99 1015.7 10.7 WSW 13.0 0.0 0.0
00:49 15.0 14.9 99 1015.7 11.4 SE 13.0 0.0 0.0
00:50 15.0 14.9 99 1015.7 8.3 E 11.4 0.0 0.0
00:50 15.0 14.9 99 1015.7 8.3 E 11.4 0.0 0.0
00:51 15.0 14.9 99 1015.7 6.9 SE 11.4 0.0 0.0
00:53 15.0 14.9 99 1015.6 9.8 S 11.4 0.0 0.0
00:54 15.0 14.9 99 1015.6 11.4 SE 11.4 0.0 0.0
00:55 15.0 14.9 99 1015.7 8.3 SE 11.4 0.0 0.0
00:56 15.0 14.9 99 1015.7 9.8 SE 11.4 0.0 0.0
00:57 15.0 14.9 99 1015.5 8.3 SE 11.4 0.0 0.0
00:58 15.0 14.9 99 1015.5 8.3 SE 11.4 0.0 0.0
00:59 15.0 14.9 99 1015.5 9.2 SE 11.4 0.0 0.0
01:00 15.0 14.9 99 1015.5 7.6 S 11.4 0.0 0.0
01:01 15.0 14.9 99 1015.6 7.6 S 11.4 0.0 0.0
01:02 15.0 14.9 99 1015.6 7.6 S 11.4 0.0 0.0
01:03 15.0 14.9 99 1015.6 7.6 S 11.4 0.0 0.0
01:04 15.0 14.9 99 1015.5 7.6 S 9.8 0.0 0.0
01:05 15.0 14.9 99 1015.6 9.8 S 9.8 0.0 0.0
01:05 15.0 14.9 99 1015.6 9.8 S 9.8 0.0 0.0
01:07 15.0 14.9 99 1015.7 7.6 SE 9.8 0.0 0.0
01:08 15.0 14.9 99 1015.5 12.1 S 12.1 0.0 0.0
01:09 15.0 14.9 99 1015.4 9.2 SE 12.1 0.0 0.0
01:10 15.0 14.9 99 1015.4 9.2 S 12.1 0.0 0.0
01:11 15.0 14.9 99 1015.4 6.9 SE 12.1 0.0 0.0
01:12 15.0 14.9 99 1015.4 5.4 SE 12.1 0.0 0.0
01:13 15.0 14.9 99 1015.6 9.2 SE 12.1 0.0 0.0
01:14 15.0 14.9 99 1015.4 9.2 S 12.1 0.0 0.0
01:15 14.9 14.8 99 1015.5 7.6 SE 12.1 0.0 0.0
01:16 14.9 14.8 99 1015.5 6.9 SE 12.1 0.0 0.0
01:17 14.9 14.8 99 1015.5 8.3 SE 12.1 0.0 0.0
01:18 14.9 14.8 99 1015.5 9.8 SE 12.1 0.0 0.0
01:19 15.0 14.9 99 1015.5 9.8 SE 9.8 0.0 0.0
01:20 14.9 14.8 99 1015.5 8.3 S 9.8 0.0 0.0
01:21 14.9 14.8 99 1015.5 7.6 SE 9.8 0.0 0.0
01:22 15.0 14.9 99 1015.4 7.6 SE 9.8 0.0 0.0
01:23 14.9 14.8 99 1015.5 6.9 S 9.8 0.0 0.0
01:24 14.9 14.8 99 1015.6 7.6 SE 9.8 0.0 0.0
01:25 14.9 14.8 99 1015.4 8.3 SE 9.8 0.0 0.0
01:26 14.9 14.8 99 1015.5 6.9 SE 9.8 0.0 0.0
01:27 14.9 14.8 99 1015.3 8.3 SE 9.8 0.0 0.0
01:28 14.9 14.8 99 1015.4 9.2 S 9.8 0.0 0.0
01:29 14.9 14.8 99 1015.3 6.9 S 9.8 0.0 0.0
01:30 14.9 14.8 99 1015.4 7.6 SE 9.8 0.0 0.0
01:31 14.9 14.8 99 1015.4 6.9 NNE 9.8 0.0 0.0
01:32 14.9 14.8 99 1015.5 7.6 SE 9.8 0.0 0.0
01:32 14.9 14.8 99 1015.5 7.6 SE 9.8 0.0 0.0
01:33 14.9 14.8 99 1015.5 9.8 SE 9.8 0.0 0.0
01:35 14.9 14.8 99 1015.5 9.2 SE 9.8 0.0 0.0
01:36 14.9 14.8 99 1015.6 9.2 W 9.8 0.0 0.0
01:37 14.9 14.8 99 1015.4 8.3 SE 9.8 0.0 0.0
01:38 14.9 14.8 99 1015.3 7.6 S 9.8 0.0 0.0
01:39 14.9 14.8 99 1015.4 9.8 SE 9.8 0.0 0.0
01:40 14.9 14.8 99 1015.4 7.6 SE 9.8 0.0 0.0
01:41 14.9 14.8 99 1015.2 6.9 SE 9.8 0.0 0.0
01:42 14.9 14.8 99 1015.3 9.8 SE 9.8 0.0 0.0
01:43 14.8 14.7 99 1015.4 10.7 SE 10.7 0.0 0.0
01:44 14.9 14.8 99 1015.4 9.2 SE 10.7 0.0 0.0
01:45 14.9 14.8 99 1015.5 7.6 W 10.7 0.0 0.0
01:46 14.8 14.7 99 1015.5 9.2 SE 10.7 0.0 0.0
01:47 14.8 14.7 99 1015.3 7.6 SE 10.7 0.0 0.0
01:48 14.8 14.7 99 1015.3 8.3 NW 10.7 0.0 0.0
01:49 14.9 14.8 99 1015.4 8.3 SE 10.7 0.0 0.0
01:50 14.8 14.7 99 1015.3 7.6 SE 10.7 0.0 0.0
01:51 14.9 14.8 99 1015.3 8.3 S 10.7 0.0 0.0
01:52 14.8 14.7 99 1015.4 8.3 SE 10.7 0.0 0.0
01:53 14.8 14.7 99 1015.4 8.3 SE 9.2 0.0 0.0
01:54 14.8 14.7 99 1015.4 9.2 SE 9.2 0.0 0.0
01:55 14.8 14.7 99 1015.4 9.2 SE 9.2 0.0 0.0
01:56 14.8 14.7 99 1015.3 9.8 SE 9.8 0.0 0.0
01:57 14.8 14.7 99 1015.3 9.8 SE 9.8 0.0 0.0
01:58 14.8 14.7 99 1015.3 9.2 SE 9.8 0.0 0.0
01:59 14.8 14.7 99 1015.3 7.6 S 9.8 0.0 0.0
02:00 14.9 14.8 99 1015.3 9.2 SE 9.8 0.0 0.0
02:00 14.9 14.8 99 1015.3 9.2 SE 9.8 0.0 0.0
02:02 14.9 14.8 99 1015.3 9.2 SE 9.8 0.0 0.0
02:03 14.9 14.8 99 1015.4 9.2 SE 9.8 0.0 0.0
02:04 14.9 14.8 99 1015.4 9.2 SE 9.8 0.0 0.0
02:05 14.9 14.8 99 1015.2 9.2 SE 9.8 0.0 0.0
02:06 14.8 14.7 99 1015.3 6.9 S 9.8 0.0 0.0
02:07 14.8 14.7 99 1015.4 7.6 SE 9.8 0.0 0.0
02:07 14.8 14.7 99 1015.4 7.6 SE 9.8 0.0 0.0
02:08 14.8 14.7 99 1015.4 6.0 S 9.2 0.0 0.0
02:10 14.8 14.7 99 1015.4 7.6 S 9.2 0.0 0.0
02:11 14.8 14.7 99 1015.4 7.6 SE 9.2 0.0 0.0
02:12 14.7 14.6 99 1015.4 6.9 SE 9.2 0.0 0.0
02:13 14.8 14.7 99 1015.4 6.0 SE 9.2 0.0 0.0
02:14 14.7 14.6 99 1015.4 7.6 SE 9.2 0.0 0.0
02:15 14.7 14.6 99 1015.3 8.3 S 8.3 0.0 0.0
02:16 14.7 14.6 99 1015.3 6.0 SE 8.3 0.0 0.0
02:17 14.7 14.6 99 1015.5 6.9 SE 8.3 0.0 0.0
02:18 14.7 14.6 99 1015.3 6.0 SE 8.3 0.0 0.0
02:19 14.7 14.6 99 1015.4 8.3 SE 8.3 0.0 0.0
02:20 14.7 14.6 99 1015.3 7.6 S 8.3 0.0 0.0
02:21 14.7 14.6 99 1015.4 9.2 SE 9.2 0.0 0.0
02:22 14.7 14.6 99 1015.4 9.2 SE 9.2 0.0 0.0
02:23 14.7 14.6 99 1015.3 6.9 SE 9.2 0.0 0.0
02:24 14.7 14.6 99 1015.2 6.0 SE 9.2 0.0 0.0
02:25 14.7 14.6 99 1015.3 7.6 S 9.2 0.0 0.0
02:26 14.7 14.6 99 1015.2 6.9 SE 9.2 0.0 0.0
02:27 14.7 14.6 99 1015.4 9.2 SE 9.2 0.0 0.0
02:28 14.6 14.5 99 1015.3 6.9 SE 9.2 0.0 0.0
02:29 14.6 14.5 99 1015.4 6.0 SE 9.2 0.0 0.0
02:30 14.7 14.6 99 1015.3 7.6 SE 9.2 0.0 0.0
02:31 14.7 14.6 99 1015.3 8.3 SE 9.2 0.0 0.0
02:32 14.6 14.5 99 1015.3 9.2 S 9.8 0.0 0.0
02:33 14.6 14.5 99 1015.3 9.2 SE 9.8 0.0 0.0
02:34 14.6 14.5 99 1015.4 8.3 SE 9.8 0.0 0.0
02:34 14.6 14.5 99 1015.4 8.3 SE 9.8 0.0 0.0
02:35 14.6 14.5 99 1015.2 5.4 SE 9.8 0.0 0.0
02:37 14.6 14.5 99 1015.2 7.6 SE 9.8 0.0 0.0
02:38 14.6 14.5 99 1015.3 6.0 SE 9.8 0.0 0.0
02:39 14.6 14.5 99 1015.2 9.8 E 9.8 0.0 0.0
02:40 14.6 14.5 99 1015.2 7.6 SE 9.8 0.0 0.0
02:41 14.6 14.5 99 1015.2 7.6 SE 9.8 0.0 0.0
02:42 14.6 14.5 99 1015.2 8.3 SE 9.8 0.0 0.0
02:43 14.6 14.5 99 1015.2 6.9 W 9.8 0.0 0.0
02:44 14.6 14.5 99 1015.1 6.9 SE 9.8 0.0 0.0
02:45 14.6 14.5 99 1015.1 5.4 S 9.8 0.0 0.0
02:46 14.6 14.5 99 1015.2 7.6 SE 9.8 0.0 0.0
02:47 14.6 14.5 99 1015.1 7.6 SE 9.8 0.0 0.0
02:48 14.6 14.5 99 1015.1 5.4 SE 9.8 0.0 0.0
02:49 14.6 14.5 99 1015.2 6.9 SE 8.3 0.0 0.0
02:50 14.6 14.5 99 1015.0 5.4 SE 8.3 0.0 0.0
02:51 14.6 14.5 99 1014.9 5.4 E 8.3 0.0 0.0
02:52 14.6 14.5 99 1015.1 5.4 SE 8.3 0.0 0.0
02:53 14.6 14.5 99 1014.9 5.4 E 8.3 0.0 0.0
02:54 14.6 14.5 99 1015.0 6.0 S 8.3 0.0 0.0
02:55 14.6 14.5 99 1015.0 6.9 SE 8.3 0.0 0.0
02:56 14.6 14.5 99 1014.9 8.3 SE 9.2 0.0 0.0
02:56 14.6 14.5 99 1014.9 8.3 SE 9.2 0.0 0.0
02:57 14.6 14.5 99 1015.0 6.9 S 9.2 0.0 0.0
02:58 14.6 14.5 99 1014.8 5.4 SE 9.2 0.0 0.0
03:00 14.6 14.5 99 1014.9 4.5 E 9.2 0.0 0.0
03:01 14.6 14.5 99 1014.9 4.5 E 9.2 0.0 0.0
03:02 14.6 14.5 99 1014.8 4.5 E 9.2 0.0 0.0
03:03 14.6 14.5 99 1014.8 4.5 E 9.2 0.0 0.0
03:04 14.6 14.5 99 1014.9 4.5 E 9.2 0.0 0.0
03:05 14.6 14.5 99 1014.8 4.5 E 9.2 0.0 0.0
03:06 14.6 14.5 99 1014.9 5.4 SE 8.3 0.0 0.0
03:08 14.6 14.5 99 1014.8 6.0 SE 6.0 0.0 0.0
03:09 14.6 14.5 99 1014.9 5.4 SE 6.0 0.0 0.0
03:10 14.6 14.5 99 1014.9 6.0 SE 6.0 0.0 0.0
03:11 14.6 14.5 99 1014.8 6.0 SE 6.9 0.0 0.0
03:12 14.6 14.5 99 1014.8 6.0 SE 6.9 0.0 0.0
03:13 14.6 14.5 99 1014.8 6.0 SE 6.9 0.0 0.0
03:14 14.6 14.5 99 1014.7 7.6 SE 7.6 0.0 0.0
03:15 14.6 14.5 99 1014.8 7.6 S 7.6 0.0 0.0
03:16 14.6 14.5 99 1014.8 3.8 E 7.6 0.0 0.0
03:17 14.6 14.5 99 1014.8 3.1 E 7.6 0.0 0.0
03:18 14.6 14.5 99 1014.6 5.4 SE 7.6 0.0 0.0
03:18 14.6 14.5 99 1014.6 5.4 SE 7.6 0.0 0.0
03:19 14.6 14.5 99 1014.7 4.5 SE 7.6 0.0 0.0
03:20 14.6 14.5 99 1014.6 5.4 SE 7.6 0.0 0.0
03:22 14.6 14.5 99 1014.7 6.0 SE 7.6 0.0 0.0
03:23 14.6 14.5 99 1014.7 4.5 SE 7.6 0.0 0.0
03:24 14.6 14.5 99 1014.7 6.0 SE 7.6 0.0 0.0
03:25 14.6 14.5 99 1014.7 7.6 SE 7.6 0.0 0.0
03:26 14.7 14.6 99 1014.7 4.5 SE 7.6 0.0 0.0
03:27 14.6 14.5 99 1014.7 6.9 SE 7.6 0.0 0.0
03:28 14.7 14.6 99 1014.7 6.0 SE 7.6 0.0 0.0
03:29 14.7 14.6 99 1014.7 5.4 SE 7.6 0.0 0.0
03:30 14.7 14.6 99 1014.7 6.9 SE 7.6 0.0 0.0
03:31 14.7 14.6 99 1014.7 6.9 SE 7.6 0.0 0.0
03:32 14.7 14.6 99 1014.7 5.4 SE 7.6 0.0 0.0
03:33 14.7 14.6 99 1014.7 5.4 SE 7.6 0.0 0.0
03:34 14.7 14.6 99 1014.8 4.5 SE 7.6 0.0 0.0
03:35 14.7 14.6 99 1014.7 6.0 SE 6.9 0.0 0.0
03:36 14.7 14.6 99 1014.7 6.9 SE 6.9 0.0 0.0
03:36 14.7 14.6 99 1014.7 6.9 SE 6.9 0.0 0.0
03:37 14.7 14.6 99 1014.7 5.4 S 6.9 0.0 0.0
03:38 14.8 14.7 99 1014.7 6.9 SE 6.9 0.0 0.0
03:40 14.8 14.7 99 1014.6 7.6 SE 7.6 0.0 0.0
03:41 14.8 14.7 99 1014.5 6.9 SE 7.6 0.0 0.0
03:42 14.8 14.7 99 1014.7 6.0 SE 7.6 0.0 0.0
03:43 14.8 14.7 99 1014.7 6.0 SE 7.6 0.0 0.0
03:44 14.8 14.7 99 1014.6 6.9 SE 7.6 0.0 0.0
03:45 14.8 14.7 99 1014.7 6.9 SE 7.6 0.0 0.0
03:46 14.8 14.7 99 1014.6 3.8 SE 7.6 0.0 0.0
03:47 14.8 14.7 99 1014.7 6.0 SE 7.6 0.0 0.0
03:48 14.8 14.7 99 1014.7 6.0 SE 7.6 0.0 0.0
03:49 14.8 14.7 99 1014.5 6.9 SE 7.6 0.0 0.0
03:50 14.8 14.7 99 1014.6 5.4 SE 6.9 0.0 0.0
03:51 14.8 14.7 99 1014.6 3.8 SE 6.9 0.0 0.0
03:52 14.8 14.7 99 1014.6 7.6 E 7.6 0.0 0.0
03:53 14.7 14.6 99 1014.7 3.1 SE 7.6 0.0 0.0
03:54 14.8 14.7 99 1014.7 4.5 S 7.6 0.0 0.0
03:55 14.7 14.6 99 1014.6 4.5 SE 7.6 0.0 0.0
03:56 14.7 14.6 99 1014.5 3.8 SE 7.6 0.0 0.0
03:57 14.7 14.6 99 1014.7 6.0 SE 7.6 0.0 0.0
03:57 14.7 14.6 99 1014.7 6.0 SE 7.6 0.0 0.0
03:58 14.7 14.6 99 1014.5 6.9 SE 7.6 0.0 0.0
03:59 14.7 14.6 99 1014.7 6.9 S 7.6 0.0 0.0
04:01 14.7 14.6 99 1014.8 6.9 S 7.6 0.0 0.0
04:02 14.7 14.6 99 1014.7 6.9 S 7.6 0.0 0.0
04:03 14.7 14.6 99 1014.6 6.9 S 6.9 0.0 0.0
04:04 14.7 14.6 99 1014.5 6.9 S 6.9 0.0 0.0
04:05 14.7 14.6 99 1014.5 6.9 S 6.9 0.0 0.0
04:06 14.7 14.6 99 1014.7 4.5 SE 6.9 0.0 0.0
04:06 14.7 14.6 99 1014.7 4.5 SE 6.9 0.0 0.0
04:08 14.7 14.6 99 1014.6 7.6 SE 7.6 0.0 0.0
04:08 14.7 14.6 99 1014.6 7.6 SE 7.6 0.0 0.0
04:09 14.7 14.6 99 1014.6 5.4 SE 7.6 0.0 0.0
04:10 14.7 14.6 99 1014.7 4.5 SE 7.6 0.0 0.0
04:12 14.7 14.6 99 1014.6 4.5 SE 7.6 0.0 0.0
04:13 14.7 14.6 99 1014.5 3.8 SE 7.6 0.0 0.0
04:14 14.7 14.6 99 1014.6 3.1 E 7.6 0.0 0.0
04:15 14.7 14.6 99 1014.6 3.8 SE 7.6 0.0 0.0
04:16 14.7 14.6 99 1014.6 5.4 SE 7.6 0.0 0.0
04:17 14.7 14.6 99 1014.7 4.5 SE 7.6 0.0 0.0
04:18 14.7 14.6 99 1014.6 3.8 SE 6.9 0.0 0.0
04:19 14.7 14.6 99 1014.6 4.5 S 5.4 0.0 0.0
04:20 14.7 14.6 99 1014.5 6.0 SE 6.0 0.8 0.1
04:21 14.7 14.6 99 1014.5 4.5 SE 6.0 0.8 0.1
04:22 14.6 14.5 99 1014.6 3.8 SE 6.0 0.8 0.1
04:23 14.7 14.6 99 1014.5 3.8 SE 6.0 0.8 0.1
04:24 14.7 14.6 99 1014.5 4.5 SE 6.0 0.8 0.1
04:25 14.7 14.6 99 1014.5 5.4 W 6.0 0.0 0.1
04:26 14.7 14.6 99 1014.5 4.5 E 6.0 0.0 0.1
04:27 14.7 14.6 99 1014.5 4.5 E 6.9 0.0 0.1
04:28 14.7 14.6 99 1014.6 3.8 E 6.9 0.0 0.1
04:29 14.7 14.6 99 1014.5 6.0 SE 6.9 0.0 0.1
04:29 14.7 14.6 99 1014.5 6.0 SE 6.9 0.0 0.1
04:30 14.7 14.6 99 1014.7 4.5 SE 6.9 0.8 0.1
04:31 14.7 14.6 99 1014.7 6.0 SE 8.3 0.8 0.1
04:33 14.7 14.6 99 1014.7 3.1 SE 8.3 0.8 0.1
04:34 14.7 14.6 99 1014.7 5.4 SE 8.3 1.5 0.2
04:35 14.7 14.6 99 1014.6 6.0 SE 8.3 0.8 0.2
04:36 14.7 14.6 99 1014.8 4.5 SE 8.3 0.8 0.2
04:37 14.7 14.6 99 1014.7 4.5 S 8.3 0.8 0.2
04:38 14.7 14.6 99 1014.8 5.4 SE 8.3 2.3 0.3
04:39 14.7 14.6 99 1014.6 4.5 SE 8.3 1.5 0.3
04:40 14.7 14.6 99 1014.6 5.4 SE 8.3 1.5 0.3
04:41 14.7 14.6 99 1014.7 6.9 SE 8.3 2.3 0.4
04:42 14.7 14.6 99 1014.8 4.5 SE 6.9 3.0 0.4
04:43 14.7 14.6 99 1014.5 5.4 SE 6.9 1.5 0.5
04:44 14.7 14.6 99 1014.8 3.1 SE 6.9 2.3 0.5
04:45 14.7 14.6 99 1014.7 8.3 SE 8.3 2.3 0.6
04:46 14.7 14.6 99 1014.8 6.9 SE 8.3 2.3 0.6
04:47 14.7 14.6 99 1014.8 6.0 SE 8.3 2.3 0.6
04:48 14.7 14.6 99 1014.8 4.5 SE 8.3 2.3 0.7
04:49 14.7 14.6 99 1014.8 6.9 SE 8.3 2.3 0.7
04:50 14.7 14.6 99 1014.7 8.3 SE 8.3 2.3 0.7
04:51 14.7 14.6 99 1014.7 4.5 SE 8.3 1.5 0.7
04:51 14.7 14.6 99 1014.7 4.5 SE 8.3 1.5 0.7
04:52 14.7 14.6 99 1014.8 5.4 S 8.3 0.8 0.8
04:53 14.7 14.6 99 1014.8 4.5 S 8.3 1.5 0.8
04:55 14.7 14.6 99 1014.7 8.3 SE 8.3 2.3 0.9
04:56 14.7 14.6 99 1014.6 6.0 SE 8.3 2.3 0.9
04:57 14.7 14.6 99 1014.7 7.6 SE 8.3 3.0 0.9
04:58 14.7 14.6 99 1014.7 6.9 SE 8.3 2.3 0.9
04:59 14.7 14.6 99 1014.7 6.9 E 8.3 1.5 0.9
05:00 14.7 14.6 99 1014.8 5.4 SE 8.3 1.5 1.0
05:01 14.7 14.6 99 1014.7 5.4 SE 8.3 1.5 1.0
05:02 14.7 14.6 99 1014.7 5.4 SE 8.3 0.8 1.0
05:03 14.7 14.6 99 1014.7 5.4 SE 8.3 0.8 1.0
05:04 14.7 14.6 99 1014.7 5.4 SE 8.3 0.8 1.0
05:05 14.7 14.6 99 1014.7 6.0 SE 7.6 0.0 1.1
05:05 14.7 14.6 99 1014.7 6.0 SE 7.6 0.0 1.1
05:07 14.7 14.6 99 1014.7 5.4 SE 7.6 1.5 1.1
05:08 14.7 14.6 99 1014.8 6.9 SE 6.9 1.5 1.1
05:10 14.7 14.6 99 1014.7 5.4 SE 6.9 1.5 1.1
05:11 14.7 14.6 99 1014.7 4.5 SE 6.9 0.0 1.1
05:12 14.7 14.6 99 1014.8 5.4 SE 6.9 0.0 1.1
05:13 14.7 14.6 99 1014.7 6.9 SE 9.2 0.0 1.1
05:14 14.7 14.6 99 1014.7 8.3 S 9.2 0.0 1.1
05:15 14.7 14.6 99 1014.7 5.4 SE 9.2 0.0 1.1
05:16 14.7 14.6 99 1014.7 6.9 SE 9.2 0.0 1.1
05:17 14.7 14.6 99 1014.7 6.0 SE 9.2 0.0 1.1
05:18 14.7 14.6 99 1014.8 6.9 SE 9.2 0.0 1.1
05:19 14.7 14.6 99 1014.8 8.3 SE 9.2 0.0 1.1
05:20 14.7 14.6 99 1014.7 6.9 S 9.2 0.0 1.1
05:21 14.7 14.6 99 1014.8 6.9 SE 9.2 0.0 1.1
05:21 14.7 14.6 99 1014.8 6.9 SE 9.2 0.0 1.1
05:22 14.7 14.6 99 1014.8 7.6 SE 9.2 0.0 1.1
05:23 14.7 14.6 99 1014.8 6.9 S 9.2 0.0 1.1
05:25 14.7 14.6 99 1015.0 6.9 SE 9.2 0.0 1.1
05:26 14.7 14.6 99 1014.7 9.2 SE 9.2 0.8 1.2
05:27 14.7 14.6 99 1014.9 8.3 SE 9.2 0.8 1.2
05:28 14.7 14.6 99 1014.9 8.3 SE 9.2 0.8 1.2
05:29 14.7 14.6 99 1014.7 3.8 SE 9.2 0.8 1.2
05:30 14.7 14.6 99 1014.7 3.8 SE 9.2 0.8 1.2
05:31 14.7 14.6 99 1014.8 6.0 SE 9.2 0.0 1.2
05:32 14.7 14.6 99 1014.7 6.0 SE 9.2 0.0 1.2
05:33 14.8 14.7 99 1014.7 6.9 S 9.2 0.0 1.2
05:34 14.8 14.7 99 1014.9 6.0 NW 9.2 0.0 1.2
05:35 14.7 14.6 99 1014.8 6.9 S 9.2 0.0 1.2
05:36 14.8 14.7 99 1014.9 7.6 SE 8.3 0.0 1.2
05:37 14.8 14.7 99 1014.7 4.5 W 8.3 0.0 1.3
05:38 14.8 14.7 99 1014.7 7.6 SE 7.6 0.8 1.3
05:39 14.8 14.7 99 1014.7 4.5 SE 7.6 0.8 1.3
05:40 14.7 14.6 99 1014.8 5.4 S 7.6 0.8 1.3
05:41 14.8 14.7 99 1014.7 4.5 S 7.6 0.8 1.3
05:41 14.8 14.7 99 1014.7 4.5 S 7.6 0.8 1.3
05:42 14.8 14.7 99 1014.7 5.4 SE 7.6 0.8 1.3
05:43 14.8 14.7 99 1014.8 6.9 SE 7.6 0.8 1.3
05:44 14.8 14.7 99 1014.7 9.2 SE 9.2 0.8 1.3
05:46 14.8 14.7 99 1014.7 6.0 S 9.2 0.8 1.3
05:47 14.8 14.7 99 1014.7 6.9 SE 9.2 0.8 1.3
05:48 14.8 14.7 99 1014.8 6.0 NW 9.2 0.0 1.3
05:49 14.9 14.8 99 1014.8 7.6 SE 9.2 0.0 1.4
05:50 14.9 14.8 99 1014.8 7.6 SE 9.2 0.8 1.4
05:51 14.8 14.7 99 1014.9 6.0 SE 9.2 0.8 1.4
05:52 14.8 14.7 99 1014.7 6.9 SE 9.2 0.8 1.4
05:53 14.9 14.8 99 1014.7 3.8 SE 9.2 0.8 1.4
05:54 14.8 14.7 99 1014.6 4.5 SE 9.2 0.8 1.4
05:55 14.8 14.7 99 1014.7 4.5 SE 7.6 0.0 1.4
05:56 14.9 14.8 99 1014.8 4.5 S 7.6 0.0 1.4
05:57 14.9 14.8 99 1014.8 6.0 SE 7.6 0.8 1.4
05:58 14.9 14.8 99 1014.8 4.5 S 7.6 0.8 1.4
05:59 14.9 14.8 99 1014.8 6.0 SE 7.6 0.8 1.4
06:00 14.9 14.8 99 1014.8 6.0 SE 6.9 0.8 1.4
06:01 14.9 14.8 99 1014.8 6.0 SE 6.9 0.8 1.4
06:02 14.9 14.8 99 1014.8 6.0 SE 6.9 0.0 1.4
06:02 14.9 14.8 99 1014.8 6.0 SE 6.9 0.0 1.4
06:03 14.9 14.8 99 1014.7 6.0 SE 6.9 0.0 1.4
06:04 14.9 14.8 99 1014.8 6.0 SE 6.9 0.0 1.4
06:06 14.9 14.8 99 1014.7 6.0 SE 7.6 0.8 1.5
06:07 14.9 14.8 99 1014.8 6.0 S 7.6 0.8 1.5
06:07 14.9 14.8 99 1014.8 6.0 S 7.6 0.8 1.5
06:09 14.9 14.8 99 1014.8 4.5 S 7.6 0.8 1.5
06:09 14.9 14.8 99 1014.8 4.5 S 7.6 0.8 1.5
06:10 14.9 14.8 99 1014.7 5.4 S 7.6 0.8 1.6
06:12 14.9 14.8 99 1014.9 4.5 SE 7.6 0.8 1.6
06:13 14.9 14.8 99 1014.7 6.9 SE 8.3 1.5 1.6
06:14 14.9 14.8 99 1014.9 7.6 S 8.3 1.5 1.6
06:15 14.9 14.8 99 1014.8 6.0 SE 8.3 1.5 1.6
06:16 14.9 14.8 99 1014.7 5.4 S 8.3 1.5 1.7
06:17 14.9 14.8 99 1014.7 6.0 S 8.3 1.5 1.7
06:18 15.0 14.9 99 1014.8 6.9 SE 8.3 0.8 1.7
06:19 14.9 14.8 99 1014.8 6.9 SE 8.3 0.8 1.7
06:20 14.9 14.8 99 1014.7 5.4 S 8.3 0.8 1.7
06:21 15.0 14.9 99 1014.7 4.5 S 8.3 0.0 1.7
06:22 14.9 14.8 99 1014.7 6.0 E 8.3 0.0 1.7
06:23 14.9 14.8 99 1014.8 7.6 N 7.6 0.0 1.7
06:24 15.0 14.9 99 1014.7 7.6 S 7.6 0.0 1.8
06:25 15.0 14.9 99 1014.7 6.0 SE 7.6 0.8 1.8
06:25 15.0 14.9 99 1014.7 6.0 SE 7.6 0.8 1.8
06:26 14.9 14.8 99 1014.7 6.0 SE 7.6 0.8 1.8
06:27 15.0 14.9 99 1014.7 5.4 SE 7.6 0.8 1.8
06:29 15.0 14.9 99 1014.7 3.8 SE 7.6 1.5 1.8
06:30 15.0 14.9 99 1014.7 3.8 SE 7.6 0.8 1.8
06:31 15.0 14.9 99 1014.7 3.8 SE 7.6 0.8 1.8
06:32 15.0 14.9 99 1014.8 6.9 W 7.6 0.8 1.8
06:33 15.0 14.9 99 1014.8 5.4 S 7.6 0.8 1.8
06:34 14.9 14.8 99 1014.6 5.4 SE 7.6 0.8 1.9
06:35 15.0 14.9 99 1014.8 5.4 SE 6.9 0.8 1.9
06:36 14.9 14.8 99 1014.8 5.4 SE 6.9 1.5 2.0
06:37 15.0 14.9 99 1014.8 3.8 S 6.9 1.5 2.0
06:38 14.9 14.8 99 1014.9 5.4 SE 6.9 1.5 2.0
06:39 15.0 14.9 99 1014.7 5.4 SE 6.9 0.8 2.0
06:40 14.9 14.8 99 1014.8 6.9 S 6.9 0.8 2.0
06:41 15.0 14.9 99 1014.7 5.4 SE 6.9 0.0 2.0
06:42 15.0 14.9 99 1014.8 3.8 SE 6.9 0.8 2.1
06:43 15.0 14.9 99 1014.8 6.0 SE 6.9 1.5 2.1
06:44 15.0 14.9 99 1014.7 4.5 SE 6.9 1.5 2.1
06:45 15.0 14.9 99 1014.7 3.8 SE 6.9 1.5 2.1
06:46 15.0 14.9 99 1014.8 5.4 SE 6.9 1.5 2.1
06:47 15.0 14.9 99 1014.7 5.4 SE 6.9 1.5 2.1
06:48 15.0 14.9 99 1014.7 6.0 SE 6.9 0.8 2.1
06:49 15.0 14.9 99 1014.8 6.0 SE 6.9 0.8 2.1
06:50 15.0 14.9 99 1014.9 6.0 SE 6.9 0.8 2.1
06:51 15.0 14.9 99 1014.7 6.0 SE 6.0 0.8 2.1
06:52 15.0 14.9 99 1014.8 3.8 SE 6.0 0.0 2.1
06:53 15.0 14.9 99 1014.8 6.0 S 6.0 0.0 2.1
06:54 15.0 14.9 99 1014.7 4.5 S 6.0 0.0 2.2
06:55 15.0 14.9 99 1014.9 5.4 S 6.0 0.8 2.2
06:56 15.0 14.9 99 1014.8 6.9 SE 6.9 0.8 2.2
06:57 15.0 14.9 99 1015.0 5.4 SE 6.9 0.8 2.2
06:58 15.0 14.9 99 1014.9 4.5 SE 6.9 0.8 2.2
06:59 15.0 14.9 99 1014.9 6.0 S 6.9 0.8 2.2
07:00 15.0 14.9 99 1014.9 6.0 S 6.9 0.0 2.2
07:01 15.0 14.9 99 1014.9 6.0 S 6.9 0.0 2.2
07:02 15.0 14.9 99 1014.7 6.0 S 6.9 0.0 2.2
07:03 15.0 14.9 99 1014.9 6.0 S 6.9 0.0 2.2
07:04 15.0 14.9 99 1014.8 6.0 S 6.9 0.0 2.2
07:05 15.0 14.9 99 1014.8 3.1 S 6.9 0.0 2.3
07:05 15.0 14.9 99 1014.8 3.1 S 6.9 0.0 2.3
07:07 15.0 14.9 99 1014.7 6.0 SE 6.0 0.8 2.3
07:08 15.0 14.9 99 1014.9 7.6 S 7.6 0.8 2.3
07:08 15.0 14.9 99 1014.9 7.6 S 7.6 0.8 2.3
07:10 15.0 14.9 99 1015.0 6.0 S 7.6 0.8 2.3
07:11 15.0 14.9 99 1014.9 4.5 SE 7.6 0.0 2.3
07:12 15.0 14.9 99 1015.0 3.8 SE 7.6 0.0 2.3
07:13 15.0 14.9 99 1014.9 5.4 S 7.6 0.0 2.3
07:14 15.0 14.9 99 1015.0 6.9 SE 7.6 0.0 2.3
07:15 15.0 14.9 99 1014.8 7.6 SE 7.6 0.0 2.3
07:16 15.0 14.9 99 1014.9 6.9 SE 7.6 0.0 2.3
07:17 15.0 14.9 99 1014.8 6.9 S 7.6 0.0 2.3
07:18 15.0 14.9 99 1014.9 5.4 SE 7.6 0.0 2.3
07:19 15.0 14.9 99 1014.9 4.5 SE 7.6 0.0 2.3
07:20 15.0 14.9 99 1014.9 5.4 S 7.6 0.0 2.3
07:21 15.0 14.9 99 1014.9 5.4 S 7.6 0.0 2.3
07:22 15.0 14.9 99 1014.9 7.6 S 7.6 0.8 2.3
07:23 15.1 15.0 99 1014.9 6.0 SE 7.6 0.8 2.3
07:24 15.0 14.9 99 1015.0 6.0 S 7.6 0.8 2.3
07:25 15.1 15.0 99 1015.0 6.0 SE 7.6 0.8 2.3
07:26 15.1 15.0 99 1014.9 5.4 S 7.6 0.8 2.3
07:27 15.0 14.9 99 1015.0 5.4 SE 7.6 0.0 2.3
07:28 15.1 15.0 99 1014.9 5.4 S 7.6 0.0 2.3
07:29 15.1 15.0 99 1015.2 4.5 SE 7.6 0.0 2.3
07:30 15.0 14.9 99 1014.9 6.0 SE 7.6 0.0 2.3
07:31 15.0 14.9 99 1015.2 5.4 S 7.6 0.0 2.3
07:32 15.1 15.0 99 1015.0 3.8 WSW 6.9 0.0 2.3
07:33 15.1 15.0 99 1015.1 6.0 S 6.9 0.0 2.3
07:34 15.1 15.0 99 1015.2 4.5 S 6.9 0.0 2.3
07:35 15.1 15.0 99 1015.1 5.4 S 6.9 0.0 2.3
07:36 15.1 15.0 99 1015.1 3.8 S 6.9 0.0 2.3
07:37 15.1 15.0 99 1015.1 5.4 WSW 6.9 0.0 2.3
07:38 15.1 15.0 99 1015.2 5.4 WSW 6.9 0.0 2.3
07:39 15.1 15.0 99 1015.2 5.4 S 6.9 0.0 2.3
07:40 15.1 15.0 99 1015.1 6.9 S 6.9 0.0 2.3
07:41 15.1 15.0 99 1015.1 6.9 S 6.9 0.0 2.3
07:42 15.1 15.0 99 1015.2 5.4 S 6.9 0.0 2.3
07:43 15.1 15.0 99 1015.1 4.5 SE 6.9 0.0 2.3
07:44 15.1 15.0 99 1015.2 3.1 SE 6.9 0.0 2.3
07:45 15.1 15.0 99 1015.1 3.8 S 6.9 0.0 2.3
07:46 15.1 15.0 99 1015.1 3.8 S 6.9 0.0 2.3
07:47 15.1 15.0 99 1015.2 4.5 S 6.9 0.0 2.3
07:48 15.1 15.0 99 1015.1 5.4 SE 6.9 0.0 2.3
07:49 15.1 15.0 99 1015.1 3.8 SE 6.9 0.0 2.3
07:50 15.1 15.0 99 1015.1 4.5 SE 6.9 0.0 2.3
07:51 15.1 15.0 99 1015.0 3.8 SE 6.9 0.0 2.3
07:52 15.1 15.0 99 1015.1 3.1 SE 5.4 0.0 2.3
07:53 15.1 15.0 99 1015.2 3.8 SE 5.4 0.0 2.3
07:54 15.1 15.0 99 1015.3 3.1 N 5.4 0.0 2.3
07:55 15.1 15.0 99 1015.0 3.8 S 5.4 0.0 2.3
07:56 15.1 15.0 99 1015.2 5.4 S 5.4 0.0 2.3
07:57 15.1 15.0 99 1015.0 3.8 N 5.4 0.0 2.3
07:58 15.1 15.0 99 1015.1 3.8 N 5.4 0.0 2.3
07:59 15.1 15.0 99 1015.2 3.1 N 5.4 0.0 2.3
07:59 15.1 15.0 99 1015.2 3.1 N 5.4 0.0 2.3
08:00 15.1 15.0 99 1015.2 3.1 N 5.4 0.0 2.3
08:01 15.1 15.0 99 1015.2 3.1 N 5.4 0.0 2.3
08:02 15.1 15.0 99 1015.0 3.1 N 5.4 0.0 2.3
08:03 15.1 15.0 99 1015.2 3.1 N 5.4 0.0 2.3
08:04 15.1 15.0 99 1015.1 3.1 N 5.4 0.0 2.3
08:05 15.1 15.0 99 1015.2 3.8 S 5.4 0.0 2.3
08:07 15.1 15.0 99 1015.2 3.1 S 3.8 0.0 2.3
08:08 15.1 15.0 99 1015.2 4.5 S 4.5 0.0 2.3
08:08 15.1 15.0 99 1015.2 4.5 S 4.5 0.0 2.3
08:09 15.1 15.0 99 1015.4 4.5 S 4.5 0.0 2.3
08:11 15.1 15.0 99 1015.3 4.5 S 5.4 0.0 2.3
08:11 15.1 15.0 99 1015.3 4.5 S 5.4 0.0 2.3
08:12 15.1 15.0 99 1015.4 4.5 S 5.4 0.0 2.3
08:13 15.1 15.0 99 1015.4 3.8 S 5.4 0.0 2.3
08:14 15.1 15.0 99 1015.3 3.1 WSW 5.4 0.0 2.3
08:15 15.1 15.0 99 1015.3 4.5 WSW 5.4 0.0 2.3
08:16 15.1 15.0 99 1015.4 5.4 S 5.4 0.0 2.3
08:17 15.1 15.0 99 1015.4 3.1 WSW 5.4 0.0 2.3
08:18 15.1 15.0 99 1015.4 3.8 S 5.4 0.0 2.3
08:19 15.1 15.0 99 1015.2 3.8 S 5.4 0.0 2.3
08:21 15.1 15.0 99 1015.3 3.1 WSW 5.4 0.0 2.3
08:22 15.1 15.0 99 1015.3 3.8 S 5.4 0.0 2.3
08:23 15.1 15.0 99 1015.3 3.1 S 5.4 0.0 2.3
08:24 15.1 15.0 99 1015.3 3.1 S 5.4 0.0 2.3
08:25 15.1 15.0 99 1015.4 3.1 S 5.4 0.0 2.3
08:26 15.1 15.0 99 1015.3 2.2 S 5.4 0.0 2.3
08:27 15.2 15.1 99 1015.3 4.5 N 4.5 0.0 2.3
08:28 15.2 15.1 99 1015.4 3.8 SE 4.5 0.0 2.3
08:29 15.2 15.1 99 1015.4 3.1 SE 4.5 0.0 2.3
08:30 15.2 15.1 99 1015.5 3.1 S 4.5 0.0 2.3
08:31 15.2 15.1 99 1015.5 4.5 S 4.5 0.0 2.3
08:32 15.2 15.1 99 1015.5 4.5 S 4.5 0.0 2.3
08:33 15.2 15.1 99 1015.5 3.1 S 4.5 0.0 2.3
08:34 15.2 15.1 99 1015.5 3.1 S 4.5 0.0 2.3
08:35 15.2 15.1 99 1015.5 4.5 S 4.5 0.0 2.3
08:36 15.2 15.1 99 1015.6 5.4 S 5.4 0.0 2.3
08:37 15.2 15.1 99 1015.7 5.4 WSW 5.4 0.0 2.3
08:38 15.2 15.1 99 1015.6 5.4 S 5.4 0.0 2.3
08:39 15.2 15.1 99 1015.5 4.5 WSW 5.4 0.0 2.3
08:40 15.2 15.1 99 1015.5 5.4 S 5.4 0.0 2.3
08:41 15.2 15.1 99 1015.5 3.8 WSW 5.4 0.0 2.3
08:42 15.2 15.1 99 1015.5 4.5 WSW 5.4 0.0 2.3
08:43 15.2 15.1 99 1015.6 4.5 WSW 5.4 0.0 2.3
08:44 15.2 15.1 99 1015.6 3.1 WSW 5.4 0.0 2.3
08:45 15.2 15.1 99 1015.6 3.8 WSW 5.4 0.0 2.3
08:46 15.2 15.1 99 1015.6 3.1 WSW 5.4 0.0 2.3
08:47 15.2 15.1 99 1015.6 3.1 WSW 5.4 0.0 2.3
08:48 15.2 15.1 99 1015.7 2.2 WSW 5.4 0.0 2.3
08:49 15.2 15.1 99 1015.7 1.6 WSW 5.4 0.0 2.3
08:50 15.2 15.1 99 1015.7 3.1 WSW 5.4 0.0 2.3
08:51 15.2 15.1 99 1015.5 2.2 WSW 4.5 0.0 2.3
08:52 15.3 15.2 99 1015.7 2.2 WSW 4.5 0.0 2.3
08:53 15.2 15.1 99 1015.6 3.1 WSW 4.5 0.0 2.3
08:54 15.3 15.2 99 1015.7 3.1 WSW 3.8 0.0 2.3
08:55 15.3 15.2 99 1015.7 3.8 WSW 4.5 0.0 2.3
08:56 15.3 15.2 99 1015.5 3.8 WSW 4.5 0.0 2.3
08:57 15.2 15.1 99 1015.7 3.8 WSW 4.5 0.0 2.3
08:58 15.3 15.2 99 1015.7 4.5 WSW 4.5 0.0 2.3
08:59 15.3 15.2 99 1015.6 3.1 WSW 4.5 0.0 2.3
09:00 15.3 15.2 99 1015.7 3.1 WSW 4.5 0.0 2.3
09:01 15.3 15.2 99 1015.7 3.1 WSW 4.5 0.0 2.3
09:01 15.3 15.2 99 1015.7 3.1 WSW 4.5 0.0 2.3
09:02 15.3 15.2 99 1015.7 3.1 WSW 4.5 0.0 2.3
09:03 15.3 15.2 99 1015.7 3.1 WSW 4.5 0.0 2.3
09:04 15.3 15.2 99 1015.6 3.1 WSW 4.5 0.0 2.3
09:05 15.3 15.2 99 1015.7 3.1 WSW 4.5 0.0 2.3
09:07 15.3 15.2 99 1015.8 4.5 S 4.5 0.0 2.3
09:07 15.3 15.2 99 1015.8 4.5 S 4.5 0.0 2.3
09:09 15.3 15.2 99 1015.7 3.1 WSW 4.5 0.0 2.3
09:10 15.3 15.2 99 1015.8 3.8 WSW 4.5 0.0 2.3
09:10 15.3 15.2 99 1015.8 3.8 WSW 4.5 0.0 2.3
09:11 15.4 15.3 99 1015.9 3.1 S 4.5 0.0 2.3
09:12 15.4 15.3 99 1015.7 3.8 S 4.5 0.0 2.3
09:13 15.4 15.3 99 1015.7 2.2 S 4.5 0.0 2.3
09:14 15.4 15.3 99 1015.8 2.2 S 4.5 0.0 2.3
09:16 15.4 15.3 99 1015.7 2.2 WSW 4.5 0.0 2.3
09:17 15.5 15.4 99 1015.8 2.2 WSW 4.5 0.0 2.3
09:18 15.5 15.4 99 1015.8 3.1 WSW 3.8 0.0 2.3
09:19 15.5 15.4 99 1015.7 3.1 W 3.8 0.0 2.3
09:20 15.5 15.4 99 1015.8 5.4 W 5.4 0.0 2.3
09:21 15.5 15.4 99 1015.8 3.8 WSW 5.4 0.0 2.3
09:22 15.5 15.4 99 1015.8 3.1 NW 5.4 0.0 2.3
09:23 15.5 15.4 99 1015.7 4.5 W 5.4 0.0 2.3
09:24 15.5 15.4 99 1015.9 3.8 W 5.4 0.0 2.3
09:25 15.4 15.3 99 1015.8 3.1 W 5.4 0.0 2.3
09:25 15.4 15.3 99 1015.8 3.1 W 5.4 0.0 2.3
09:26 15.4 15.3 99 1015.9 3.8 WSW 5.4 0.0 2.3
09:28 15.4 15.3 99 1015.9 4.5 WSW 5.4 0.0 2.3
09:29 15.4 15.3 99 1015.8 2.2 WSW 5.4 0.0 2.3
09:30 15.4 15.3 99 1015.8 2.2 WSW 5.4 0.0 2.3
09:31 15.4 15.3 99 1016.0 3.8 S 4.5 0.0 2.3
09:32 15.4 15.3 99 1016.0 3.1 WSW 4.5 0.0 2.3
09:33 15.5 15.4 99 1016.0 3.8 WSW 4.5 0.0 2.3
09:34 15.5 15.4 99 1015.9 3.1 WSW 4.5 0.0 2.3
09:35 15.4 15.3 99 1016.0 2.2 WSW 4.5 0.0 2.3
09:36 15.4 15.3 99 1015.9 1.6 WSW 4.5 0.0 2.3
09:37 15.4 15.3 99 1015.9 3.1 WSW 4.5 0.0 2.3
09:38 15.4 15.3 99 1015.8 1.6 WSW 3.8 0.0 2.3
09:39 15.4 15.3 99 1015.9 1.6 WSW 3.8 0.0 2.3
09:40 15.4 15.3 99 1015.9 2.2 WSW 3.8 0.0 2.3
09:41 15.5 15.4 99 1016.0 3.1 WSW 3.8 0.0 2.3
09:42 15.4 15.3 99 1015.9 3.8 W 3.8 0.0 2.3
09:43 15.5 15.4 99 1015.9 2.2 WSW 3.8 0.0 2.3
09:44 15.5 15.4 99 1015.9 2.2 WSW 3.8 0.0 2.3
09:45 15.5 15.4 99 1016.1 3.1 W 3.8 0.0 2.3
09:45 15.5 15.4 99 1016.1 3.1 W 3.8 0.0 2.3
09:46 15.4 15.3 99 1015.9 3.1 WSW 3.8 0.0 2.3
09:47 15.4 15.3 99 1016.0 3.8 W 3.8 0.0 2.3
09:48 15.5 15.4 99 1016.0 2.2 WSW 3.8 0.0 2.3
09:49 15.4 15.3 99 1016.0 3.8 WSW 3.8 0.0 2.3
09:50 15.4 15.3 99 1016.0 3.8 W 3.8 0.0 2.3
09:51 15.5 15.4 99 1016.0 3.1 W 3.8 0.0 2.3
09:52 15.4 15.3 99 1016.1 2.2 WSW 3.8 0.0 2.3
09:53 15.4 15.3 99 1016.0 2.2 WSW 3.8 0.0 2.3
09:54 15.4 15.3 99 1016.0 2.2 WSW 3.8 0.0 2.3
09:55 15.5 15.4 99 1016.1 2.2 NW 3.8 0.0 2.3
09:56 15.4 15.3 99 1016.0 2.2 NW 3.8 0.0 2.3
09:57 15.5 15.4 99 1016.0 2.2 NW 3.8 0.0 2.3
09:59 15.5 15.4 99 1016.2 2.2 NW 3.8 0.8 2.4
10:00 15.5 15.4 99 1016.1 3.1 WSW 3.8 0.8 2.4
10:01 15.5 15.4 99 1016.0 3.1 WSW 3.1 0.8 2.4
10:02 15.5 15.4 99 1016.0 3.1 WSW 3.1 0.8 2.4
10:03 15.5 15.4 99 1016.1 3.1 WSW 3.1 0.8 2.4
10:04 15.5 15.4 99 1016.1 3.1 WSW 3.1 0.0 2.4
10:05 15.5 15.4 99 1016.1 3.1 WSW 3.1 0.0 2.4
10:06 15.5 15.4 99 1016.2 3.8 WSW 3.8 0.0 2.4
10:07 15.5 15.4 99 1016.2 3.1 WSW 3.8 0.0 2.4
10:07 15.5 15.4 99 1016.2 3.1 WSW 3.8 0.0 2.4
10:09 15.5 15.4 99 1016.2 2.2 NW 3.8 0.0 2.4
10:10 15.5 15.4 99 1016.1 1.6 NW 3.8 0.0 2.4
10:10 15.5 15.4 99 1016.1 1.6 NW 3.8 0.0 2.4
10:11 15.5 15.4 99 1016.1 1.6 NW 3.8 0.0 2.4
10:12 15.5 15.4 99 1016.0 1.6 NW 3.8 0.0 2.4
10:13 15.6 15.5 99 1016.1 3.1 WSW 3.8 0.0 2.4
10:14 15.6 15.5 99 1016.1 3.1 WSW 3.8 0.0 2.4
10:16 15.6 15.5 99 1016.1 1.6 WSW 3.8 0.0 2.4
10:17 15.6 15.5 99 1016.1 0.7 WSW 3.1 0.0 2.4
10:18 15.6 15.5 99 1016.0 0.7 WSW 3.1 0.0 2.4
10:19 15.7 15.6 99 1016.2 0.7 WSW 3.1 0.0 2.4
10:20 15.6 15.5 99 1016.1 1.6 WSW 3.1 0.0 2.4
10:21 15.7 15.6 99 1016.1 0.7 WSW 3.1 0.0 2.4
10:21 15.7 15.6 99 1016.1 0.7 WSW 3.1 0.0 2.4
10:22 15.7 15.6 99 1016.1 0.7 WSW 3.1 0.0 2.4
10:24 15.8 15.7 99 1016.2 2.2 WSW 3.1 0.0 2.4
10:25 15.8 15.7 99 1016.1 3.1 WSW 3.1 0.0 2.4
10:26 15.8 15.7 99 1016.1 2.2 WSW 3.1 0.0 2.4
10:27 15.8 15.7 99 1016.2 3.1 WSW 3.1 0.0 2.4
10:28 15.9 15.8 99 1016.1 3.1 WSW 3.1 0.0 2.4
10:29 15.9 15.8 99 1016.2 3.1 W 3.1 0.0 2.4
10:30 15.9 15.8 99 1016.2 2.2 W 3.1 0.0 2.4
10:31 15.9 15.8 99 1016.0 2.2 W 3.1 0.0 2.4
10:32 15.9 15.8 99 1016.2 2.2 W 3.1 0.0 2.4
10:33 16.0 15.9 99 1016.1 2.2 W 3.1 0.0 2.4
10:34 16.0 15.9 99 1016.0 2.2 W 3.1 0.0 2.4
10:35 16.0 15.9 99 1016.1 1.6 W 3.1 0.0 2.4
10:36 16.1 16.0 99 1016.0 2.2 W 3.1 0.0 2.4
10:37 16.2 16.1 99 1016.1 2.2 W 3.1 0.0 2.4
10:38 16.2 16.1 99 1016.2 2.2 W 3.1 0.0 2.4
10:39 16.2 16.1 99 1016.0 1.6 W 3.1 0.0 2.4
10:40 16.3 16.2 99 1016.2 0.7 W 2.2 0.0 2.4
10:41 16.3 16.2 99 1016.1 2.2 W 2.2 0.0 2.4
10:42 16.3 16.2 99 1016.1 3.8 W 3.8 0.0 2.4
10:43 16.3 16.2 99 1016.2 3.8 W 3.8 0.0 2.4
10:44 16.4 16.3 99 1016.0 3.8 W 3.8 0.0 2.4
10:45 16.4 16.3 99 1016.1 3.1 W 3.8 0.0 2.4
10:46 16.4 16.3 99 1016.2 2.2 W 3.8 0.0 2.4
10:47 16.4 16.3 99 1016.1 2.2 W 3.8 0.0 2.4
10:47 16.4 16.3 99 1016.1 2.2 W 3.8 0.0 2.4
10:48 16.4 16.3 99 1016.1 1.6 W 3.8 0.0 2.4
10:49 16.4 16.3 99 1016.2 1.6 W 3.8 0.0 2.4
10:50 16.5 16.4 99 1016.1 0.7 W 3.8 0.0 2.4
10:51 16.5 16.4 99 1016.1 1.6 W 3.8 0.0 2.4
10:52 16.5 16.4 99 1016.2 2.2 W 3.8 0.0 2.4
10:54 16.6 16.5 99 1016.2 1.6 NW 3.8 0.0 2.4
10:55 16.6 16.5 99 1016.1 1.6 NW 3.1 0.0 2.4
10:56 16.6 16.5 99 1016.1 0.7 NW 2.2 0.0 2.4
10:57 16.6 16.5 99 1016.2 1.6 NW 2.2 0.0 2.4
10:58 16.6 16.5 99 1016.2 2.2 NW 2.2 0.0 2.4
10:59 16.6 16.5 99 1016.3 1.6 NW 2.2 0.0 2.4
11:00 16.6 16.5 99 1016.2 1.6 NW 2.2 0.0 2.4
11:01 16.6 16.5 99 1016.3 0.7 NW 2.2 0.0 2.4
11:02 16.7 16.6 99 1016.2 0.7 NW 2.2 0.0 2.4
11:03 16.6 16.5 99 1016.3 0.0 NW 2.2 0.0 2.4
11:04 16.7 16.6 99 1016.2 0.7 NW 2.2 0.0 2.4
11:05 16.7 16.6 99 1016.3 1.6 NW 2.2 0.0 2.4
11:06 16.7 16.6 99 1016.2 0.7 NW 2.2 0.0 2.4
11:06 16.7 16.6 99 1016.2 0.7 NW 2.2 0.0 2.4
11:08 16.7 16.6 99 1016.2 0.7 NW 2.2 0.0 2.4
11:09 16.7 16.6 99 1016.3 1.6 NW 1.6 0.0 2.4
11:09 16.7 16.6 99 1016.3 1.6 NW 1.6 0.0 2.4
11:11 16.7 16.6 99 1016.3 0.7 NW 1.6 0.0 2.4
11:12 16.7 16.6 99 1016.3 0.7 NW 1.6 0.0 2.4
11:13 16.7 16.6 99 1016.3 1.6 NW 1.6 0.0 2.4
11:14 16.7 16.6 99 1016.3 2.2 NW 2.2 0.0 2.4
11:15 16.7 16.6 99 1016.4 2.2 NW 2.2 0.0 2.4
11:16 16.7 16.6 99 1016.3 3.1 NW 3.1 0.0 2.4
11:17 16.7 16.6 99 1016.3 3.1 NW 3.1 0.0 2.4
11:18 16.7 16.6 99 1016.3 5.4 NW 5.4 0.0 2.4
11:18 16.7 16.6 99 1016.3 5.4 NW 5.4 0.0 2.4
11:19 16.6 16.5 99 1016.5 3.8 W 5.4 0.0 2.4
11:20 16.6 16.5 99 1016.4 4.5 NW 5.4 0.0 2.4
11:21 16.6 16.5 99 1016.3 2.2 NW 5.4 0.0 2.4
11:22 16.5 16.4 99 1016.2 3.1 NW 5.4 0.0 2.4
11:23 16.5 16.4 99 1016.3 3.8 NW 5.4 0.0 2.4
11:24 16.5 16.4 99 1016.3 3.1 NW 5.4 0.0 2.4
11:25 16.4 16.3 99 1016.3 4.5 W 5.4 0.0 2.4
11:26 16.4 16.3 99 1016.4 3.8 NW 5.4 0.0 2.4
11:27 16.4 16.3 99 1016.3 3.8 NW 5.4 0.0 2.4
11:28 16.4 16.3 99 1016.3 4.5 NW 5.4 0.0 2.4
11:29 16.3 16.2 99 1016.2 2.2 NW 4.5 0.0 2.4
11:30 16.3 16.2 99 1016.4 3.8 NW 4.5 0.0 2.4
11:31 16.3 16.2 99 1016.3 3.1 NW 4.5 0.0 2.4
11:32 16.3 16.2 99 1016.3 3.8 NW 4.5 0.0 2.4
11:34 16.2 16.1 99 1016.4 4.5 W 4.5 0.0 2.4
11:35 16.2 16.1 99 1016.3 3.1 NW 4.5 0.0 2.4
11:36 16.2 16.1 99 1016.4 3.1 NW 4.5 0.0 2.4
11:37 16.2 16.1 99 1016.4 3.8 W 4.5 0.0 2.4
11:38 16.2 16.1 99 1016.4 2.2 W 4.5 0.0 2.4
11:39 16.2 16.1 99 1016.3 1.6 W 4.5 0.0 2.4
11:40 16.1 16.0 99 1016.4 2.2 NW 4.5 0.0 2.4
11:41 16.1 16.0 99 1016.3 3.1 NW 4.5 0.0 2.4
11:42 16.1 16.0 99 1016.2 3.1 NW 4.5 0.0 2.4
11:43 16.1 16.0 99 1016.3 3.1 NW 4.5 0.0 2.4
11:44 16.1 16.0 99 1016.2 3.8 NW 4.5 0.8 2.5
11:45 16.1 16.0 99 1016.3 3.1 NW 3.8 0.8 2.5
11:46 16.1 16.0 99 1016.3 1.6 NW 3.8 0.8 2.5
11:47 16.1 16.0 99 1016.2 2.2 NW 3.8 0.8 2.5
11:48 16.1 16.0 99 1016.2 1.6 NW 3.8 0.8 2.5
11:49 16.2 16.1 99 1016.3 3.1 NW 3.8 0.0 2.5
11:50 16.2 16.1 99 1016.2 3.1 NW 3.8 0.0 2.5
11:51 16.2 16.1 99 1016.1 3.1 NW 3.8 0.0 2.5
11:52 16.3 16.2 99 1016.2 3.8 NW 3.8 0.0 2.5
11:53 16.3 16.2 99 1016.1 3.1 NW 3.8 0.0 2.5
11:54 16.3 16.2 99 1016.0 2.2 NW 3.8 0.0 2.5
11:55 16.3 16.2 99 1016.1 1.6 NW 3.8 0.0 2.5
11:56 16.4 16.3 99 1016.0 3.1 NW 3.8 0.0 2.5
11:57 16.4 16.3 99 1016.1 1.6 NW 3.8 0.0 2.5
11:58 16.5 16.4 99 1016.1 3.1 NW 3.8 0.0 2.5
11:59 16.5 16.4 99 1016.1 3.8 NW 3.8 0.0 2.5
12:00 16.5 16.4 99 1016.2 3.8 NW 3.8 0.0 2.5
12:01 16.5 16.4 99 1016.1 2.2 NW 3.8 0.0 2.5
12:02 16.6 16.5 99 1016.2 3.1 NW 3.8 0.0 2.5
12:03 16.6 16.5 99 1016.1 2.2 NW 3.8 0.0 2.5
12:03 16.6 16.5 99 1016.1 2.2 NW 3.8 0.0 2.5
12:04 16.6 16.5 99 1016.0 3.8 NW 3.8 0.0 2.5
12:05 16.6 16.5 99 1016.2 3.1 NW 3.8 0.0 2.5
12:07 16.6 16.5 99 1016.0 0.7 NW 3.8 0.0 2.5
12:07 16.6 16.5 99 1016.0 0.7 NW 3.8 0.0 2.5
12:08 16.7 16.6 99 1016.0 2.2 NW 3.8 0.0 2.5
12:10 16.7 16.6 99 1016.0 1.6 NW 3.8 0.0 2.5
12:10 16.7 16.6 99 1016.0 1.6 NW 3.8 0.0 2.5
12:11 16.8 16.7 99 1015.9 3.1 NW 3.8 0.0 2.5
12:12 16.8 16.7 99 1016.0 3.8 NW 3.8 0.0 2.5
12:14 16.8 16.7 99 1016.0 3.1 NW 3.8 0.0 2.5
12:15 16.8 16.7 99 1016.2 3.1 NW 3.8 0.0 2.5
12:16 16.9 16.8 99 1016.2 2.2 NW 3.8 0.0 2.5
12:17 16.9 16.8 99 1016.2 3.1 NW 3.8 0.0 2.5
12:18 16.9 16.8 99 1016.2 2.2 NW 3.8 0.0 2.5
12:19 16.9 16.8 99 1016.2 2.2 NW 3.8 0.0 2.5
12:20 16.9 16.8 99 1016.1 1.6 NW 3.8 0.0 2.5
12:21 16.9 16.8 99 1016.3 2.2 NW 3.8 0.0 2.5
12:22 16.9 16.8 99 1016.2 2.2 NW 3.8 0.0 2.5
12:23 16.9 16.8 99 1016.1 1.6 NW 3.1 0.0 2.5
12:24 16.9 16.8 99 1016.2 1.6 NW 3.1 0.0 2.5
12:25 16.9 16.8 99 1016.3 1.6 NW 3.1 0.0 2.5
12:26 16.9 16.8 99 1016.1 1.6 NW 3.1 0.0 2.5
12:27 16.9 16.8 99 1016.2 2.2 NW 3.1 0.0 2.5
12:28 16.9 16.8 99 1016.4 2.2 NW 2.2 0.0 2.5
12:29 16.9 16.8 99 1016.2 1.6 NW 2.2 0.0 2.5
12:30 16.9 16.8 99 1016.2 2.2 NW 2.2 0.0 2.5
12:31 16.9 16.8 99 1016.3 2.2 NW 2.2 0.0 2.5
12:32 16.9 16.8 99 1016.2 2.2 NW 3.8 0.0 2.5
12:33 16.9 16.8 99 1016.3 3.1 WSW 3.8 0.0 2.5
12:34 16.9 16.8 99 1016.2 2.2 NW 3.8 0.0 2.5
12:35 16.9 16.8 99 1016.2 1.6 NW 3.8 0.0 2.5
12:36 16.9 16.8 99 1016.3 2.2 NW 3.8 0.0 2.5
12:37 16.9 16.8 99 1016.3 3.1 NW 3.8 0.0 2.5
12:38 16.8 16.7 99 1016.2 2.2 NW 3.8 0.0 2.5
12:39 16.8 16.7 99 1016.4 2.2 NW 3.8 0.0 2.5
12:40 16.8 16.7 99 1016.3 3.8 NW 3.8 0.0 2.5
12:41 16.8 16.7 99 1016.3 3.8 NW 3.8 0.0 2.5
12:42 16.8 16.7 99 1016.3 2.2 NW 3.8 0.0 2.5
12:43 16.8 16.7 99 1016.3 1.6 NW 3.8 0.0 2.5
12:43 16.8 16.7 99 1016.3 1.6 NW 3.8 0.0 2.5
12:44 16.8 16.7 99 1016.5 0.7 NW 3.8 0.0 2.5
12:45 16.8 16.7 99 1016.3 1.6 NW 3.8 0.0 2.5
12:46 16.8 16.7 99 1016.2 2.2 NW 3.8 0.0 2.5
12:47 16.8 16.7 99 1016.4 2.2 NW 3.8 0.0 2.5
12:48 16.8 16.7 99 1016.2 1.6 NW 3.8 0.0 2.5
12:49 16.8 16.7 99 1016.4 0.7 NW 3.8 0.0 2.5
12:50 16.8 16.7 99 1016.4 1.6 NW 3.8 0.0 2.5
12:52 16.8 16.7 99 1016.3 1.6 NW 2.2 0.0 2.5
12:53 16.8 16.7 99 1016.5 1.6 NW 2.2 0.0 2.5
12:54 16.8 16.7 99 1016.3 2.2 NW 2.2 0.0 2.5
12:55 16.8 16.7 99 1016.2 3.8 W 3.8 0.0 2.5
12:56 16.9 16.8 99 1016.2 4.5 W 4.5 0.0 2.5
12:57 16.9 16.8 99 1016.4 3.8 NW 4.5 0.0 2.5
12:58 16.9 16.8 99 1016.2 3.8 NW 4.5 0.0 2.5
12:59 16.9 16.8 99 1016.1 3.8 N 4.5 0.0 2.5
13:00 16.9 16.8 99 1016.2 5.4 N 5.4 0.0 2.5
13:01 16.9 16.8 99 1016.3 5.4 N 5.4 0.0 2.5
13:02 16.9 16.8 99 1016.2 5.4 N 5.4 0.0 2.5
13:03 16.9 16.8 99 1016.2 5.4 N 5.4 0.0 2.5
13:04 16.9 16.8 99 1016.2 4.5 N 5.4 0.0 2.5
13:05 16.9 16.8 99 1016.2 4.5 N 5.4 0.0 2.5
13:07 16.9 16.8 99 1016.2 4.5 NW 5.4 0.0 2.5
13:07 16.9 16.8 99 1016.2 4.5 NW 5.4 0.0 2.5
13:08 16.9 16.8 99 1016.1 3.8 NW 5.4 0.0 2.5
13:10 16.9 16.8 99 1016.3 5.4 N 5.4 0.0 2.5
13:10 16.9 16.8 99 1016.3 5.4 N 5.4 0.0 2.5
13:11 16.9 16.8 99 1016.2 6.0 W 6.0 0.0 2.5
13:12 16.9 16.8 99 1016.3 5.4 N 6.0 0.0 2.5
13:14 16.9 16.8 99 1016.3 4.5 W 6.0 0.0 2.5
13:15 16.9 16.8 99 1016.3 3.8 NW 6.0 0.0 2.5
13:16 17.0 16.9 99 1016.2 4.5 W 6.0 0.0 2.5
13:17 17.0 16.9 99 1016.1 3.1 W 6.0 0.0 2.5
13:18 17.0 16.9 99 1016.2 2.2 NW 6.0 0.0 2.5
13:19 17.0 16.9 99 1016.2 3.8 W 6.0 0.0 2.5
13:20 17.0 16.9 99 1016.3 5.4 NW 6.0 0.0 2.5
13:21 17.1 17.0 99 1016.4 4.5 N 6.0 0.0 2.5
13:22 17.0 16.9 99 1016.2 5.4 N 6.0 0.0 2.5
13:23 17.1 17.0 99 1016.4 3.8 W 6.0 0.0 2.5
13:24 17.2 17.1 99 1016.4 6.0 NW 6.0 0.0 2.5
13:25 17.2 17.1 99 1016.2 3.8 NW 6.0 0.0 2.5
13:26 17.2 17.1 99 1016.3 3.8 NW 6.0 0.0 2.5
13:27 17.2 17.1 99 1016.3 3.1 NW 6.0 0.0 2.5
13:28 17.3 17.2 99 1016.3 3.1 NW 6.0 0.0 2.5
13:29 17.3 17.2 99 1016.3 2.2 NW 6.0 0.0 2.5
13:30 17.4 17.3 99 1016.3 2.2 NW 6.0 0.0 2.5
13:31 17.5 17.4 99 1016.3 3.8 NW 6.0 0.0 2.5
13:32 17.5 17.4 99 1016.2 4.5 NW 6.0 0.0 2.5
13:33 17.5 17.4 99 1016.2 4.5 S 6.0 0.0 2.5
13:34 17.6 17.5 99 1016.2 3.8 N 4.5 0.0 2.5
13:34 17.6 17.5 99 1016.2 3.8 N 4.5 0.0 2.5
13:35 17.5 17.4 99 1016.3 3.1 W 4.5 0.0 2.5
13:36 17.5 17.4 99 1016.2 1.6 W 4.5 0.0 2.5
13:37 17.6 17.5 99 1016.2 0.7 W 4.5 0.0 2.5
13:38 17.7 17.6 99 1016.2 0.7 NW 4.5 0.0 2.5
13:39 17.7 17.6 99 1016.2 2.2 NW 4.5 0.0 2.5
13:40 17.8 17.7 99 1016.2 2.2 NW 4.5 0.0 2.5
13:41 18.0 17.9 99 1016.2 1.6 NW 4.5 0.0 2.5
13:42 18.1 18.0 99 1016.2 2.2 NW 4.5 0.0 2.5
13:44 18.3 18.2 99 1016.2 2.2 NW 3.8 0.0 2.5
13:45 18.4 18.3 99 1016.2 3.1 NW 3.1 0.0 2.5
13:46 18.4 18.3 99 1016.2 3.8 NW 3.8 0.0 2.5
13:47 18.5 18.4 99 1016.2 1.6 NW 3.8 0.0 2.5
13:48 18.6 18.5 99 1016.2 3.8 S 3.8 0.0 2.5
13:49 18.6 18.5 99 1016.2 3.1 S 3.8 0.0 2.5
13:50 18.7 18.6 99 1016.2 2.2 SE 3.8 0.0 2.5
13:51 18.8 18.7 99 1016.2 1.6 E 3.8 0.0 2.5
13:52 18.9 18.8 99 1016.2 2.2 SW 3.8 0.0 2.5
13:53 18.9 18.8 99 1016.1 2.2 SW 3.8 0.0 2.5
13:54 19.0 18.9 99 1016.3 3.8 SW 3.8 0.0 2.5
13:55 19.0 18.9 99 1016.2 3.8 S 3.8 0.0 2.5
13:55 19.0 18.9 99 1016.2 3.8 S 3.8 0.0 2.5
13:56 19.0 18.9 99 1016.2 3.1 S 3.8 0.0 2.5
13:57 19.0 18.9 99 1016.2 3.8 S 3.8 0.0 2.5
13:59 18.9 18.8 99 1016.2 3.8 N 3.8 0.0 2.5
14:00 18.9 18.8 99 1016.2 3.1 S 3.8 0.0 2.5
14:01 19.0 18.9 99 1016.2 3.8 S 3.8 0.0 2.5
14:02 19.1 19.0 99 1016.1 4.5 SW 4.5 0.0 2.5
14:03 19.1 19.0 99 1016.1 4.5 SW 4.5 0.0 2.5
14:04 19.1 19.0 99 1016.2 3.1 SE 4.5 0.0 2.5
14:05 19.1 19.0 99 1016.2 3.1 S 4.5 0.0 2.5
14:05 19.1 19.0 99 1016.2 3.1 S 4.5 0.0 2.5
14:06 19.1 19.0 99 1016.3 3.1 S 4.5 0.0 2.5
14:08 19.0 18.9 99 1016.3 3.8 SE 4.5 0.0 2.5
14:09 19.0 18.9 99 1016.3 2.2 SE 4.5 0.0 2.5
14:09 19.0 18.9 99 1016.3 2.2 SE 4.5 0.0 2.5
14:11 19.0 18.9 99 1016.2 10.7 W 10.7 0.0 2.5
14:12 19.0 18.9 99 1016.3 3.8 SW 10.7 0.0 2.5
14:12 19.0 18.9 99 1016.3 3.8 SW 10.7 0.0 2.5
14:13 18.9 18.8 99 1016.2 3.1 NE 10.7 0.0 2.5
14:14 18.9 18.8 99 1016.2 1.6 NE 10.7 0.0 2.5
14:15 18.9 18.8 99 1016.3 3.8 W 10.7 0.0 2.5
14:16 18.9 18.8 99 1016.3 3.8 SW 10.7 0.0 2.5
14:17 18.9 18.8 99 1016.3 2.2 W 10.7 0.0 2.5
14:18 18.9 18.8 99 1016.4 3.8 W 10.7 0.0 2.5
14:19 18.9 18.8 99 1016.2 2.2 W 10.7 0.0 2.5
14:20 18.9 18.8 99 1016.4 1.6 NW 10.7 0.0 2.5
14:22 18.8 18.7 99 1016.3 3.8 NW 3.8 0.0 2.5
14:23 18.8 18.7 99 1016.3 3.8 NW 3.8 0.0 2.5
14:24 18.8 18.7 99 1016.4 4.5 NW 4.5 0.0 2.5
14:25 18.7 18.6 99 1016.3 6.0 SW 6.0 0.0 2.5
14:26 18.7 18.6 99 1016.4 4.5 SW 6.0 0.0 2.5
14:27 18.6 18.5 99 1016.3 3.1 SW 6.0 0.0 2.5
14:28 18.6 18.5 99 1016.3 3.8 SW 6.0 0.0 2.5
14:29 18.5 18.4 99 1016.5 2.2 W 6.0 0.0 2.5
14:30 18.5 18.4 99 1016.4 3.8 SW 6.0 0.0 2.5
14:31 18.4 18.3 99 1016.2 2.2 NW 6.0 0.0 2.5
14:32 18.4 18.3 99 1016.5 3.8 W 6.0 0.0 2.5
14:33 18.4 18.3 99 1016.4 3.1 SW 6.0 0.0 2.5
14:34 18.3 18.2 99 1016.5 2.2 W 6.0 0.0 2.5
14:35 18.3 18.2 99 1016.6 4.5 S 4.5 0.0 2.5
14:36 18.2 18.1 99 1016.4 4.5 SW 4.5 0.0 2.5
14:37 18.2 18.1 99 1016.5 4.5 NW 4.5 0.0 2.5
14:38 18.1 18.0 99 1016.3 6.0 W 6.0 0.0 2.5
14:39 18.1 18.0 99 1016.3 5.4 W 6.0 0.0 2.5
14:40 18.0 17.9 99 1016.4 4.5 SW 6.0 0.0 2.5
14:41 18.0 17.9 99 1016.4 2.2 NW 6.0 0.0 2.5
14:42 18.0 17.9 99 1016.3 3.8 NW 6.0 0.0 2.5
14:43 18.0 17.9 99 1016.3 3.1 NW 6.0 0.0 2.5
14:44 17.9 17.8 99 1016.3 3.8 NW 6.0 0.0 2.5
14:46 17.9 17.8 99 1016.4 4.5 W 6.0 0.0 2.5
14:47 17.8 17.7 99 1016.4 3.8 SW 6.0 0.0 2.5
14:48 17.9 17.8 99 1016.4 5.4 NW 6.0 0.0 2.5
14:49 17.8 17.7 99 1016.5 3.8 SW 5.4 0.0 2.5
14:50 17.8 17.7 99 1016.3 3.1 NW 5.4 0.0 2.5
14:51 17.8 17.7 99 1016.4 3.8 SW 5.4 0.0 2.5
14:52 17.8 17.7 99 1016.4 4.5 W 5.4 0.0 2.5
14:53 17.7 17.6 99 1016.4 5.4 SW 5.4 0.0 2.5
14:54 17.7 17.6 99 1016.5 3.1 SW 5.4 0.0 2.5
14:55 17.7 17.6 99 1016.4 3.8 W 5.4 0.0 2.5
14:56 17.7 17.6 99 1016.4 4.5 W 5.4 0.0 2.5
14:57 17.6 17.5 99 1016.5 4.5 SW 5.4 0.0 2.5
14:58 17.6 17.5 99 1016.4 5.4 SW 5.4 0.0 2.5
14:58 17.6 17.5 99 1016.4 5.4 SW 5.4 0.0 2.5
14:59 17.5 17.4 99 1016.5 6.9 W 6.9 0.0 2.5
15:00 17.5 17.4 99 1016.6 6.9 W 6.9 0.0 2.5
15:01 17.5 17.4 99 1016.6 6.9 W 6.9 0.0 2.5
15:02 17.5 17.4 99 1016.6 6.9 W 6.9 0.0 2.5
15:03 17.5 17.4 99 1016.6 6.9 W 6.9 0.0 2.5
15:04 17.5 17.4 99 1016.3 6.9 W 6.9 0.0 2.5
15:05 17.3 17.2 99 1016.5 5.4 SW 6.9 0.0 2.5
15:07 17.3 17.2 99 1016.4 2.2 SW 6.9 0.0 2.5
15:07 17.3 17.2 99 1016.4 2.2 SW 6.9 0.0 2.5
15:08 17.3 17.2 99 1016.6 6.0 SW 6.9 0.0 2.5
15:10 17.4 17.3 99 1016.7 6.0 SW 6.9 0.0 2.5
15:10 17.4 17.3 99 1016.7 6.0 SW 6.9 0.0 2.5
15:11 17.4 17.3 99 1016.5 5.4 W 6.9 0.0 2.5
15:13 17.5 17.4 99 1016.6 4.5 W 6.9 0.0 2.5
15:14 17.5 17.4 99 1016.5 7.6 W 7.6 0.0 2.5
15:15 17.6 17.5 99 1016.6 6.0 NNW 7.6 0.0 2.5
15:15 17.6 17.5 99 1016.6 6.0 NNW 7.6 0.0 2.5
15:16 17.6 17.5 99 1016.6 3.8 NW 7.6 0.0 2.5
15:17 17.6 17.5 99 1016.7 6.9 NW 7.6 0.0 2.5
15:19 17.5 17.4 99 1016.4 6.9 W 7.6 0.0 2.5
15:20 17.5 17.4 99 1016.3 3.8 NW 7.6 0.0 2.5
15:21 17.5 17.4 99 1016.6 6.9 NW 7.6 0.0 2.5
15:22 17.4 17.3 99 1016.5 6.0 NW 7.6 0.0 2.5
15:23 17.4 17.3 99 1016.5 4.5 W 7.6 0.0 2.5
15:24 17.4 17.3 99 1016.5 6.0 W 7.6 0.0 2.5
15:25 17.3 17.2 99 1016.5 3.8 NW 6.9 0.0 2.5
15:26 17.4 17.3 99 1016.4 5.4 NW 6.9 0.0 2.5
15:27 17.4 17.3 99 1016.5 3.8 NW 6.9 0.0 2.5
15:28 17.4 17.3 99 1016.5 4.5 SW 6.9 0.0 2.5
15:29 17.4 17.3 99 1016.5 3.8 NW 6.9 0.0 2.5
15:29 17.4 17.3 99 1016.5 3.8 NW 6.9 0.0 2.5
15:30 17.4 17.3 99 1016.5 3.8 NW 6.9 0.0 2.5
15:31 17.5 17.4 99 1016.4 4.5 W 6.0 0.0 2.5
15:32 17.5 17.4 99 1016.5 4.5 SW 6.0 0.0 2.5
15:33 17.6 17.5 99 1016.5 5.4 W 6.0 0.0 2.5
15:34 17.6 17.5 99 1016.6 4.5 NW 5.4 0.0 2.5
15:35 17.6 17.5 99 1016.5 3.1 NW 5.4 0.0 2.5
15:36 17.7 17.6 99 1016.4 2.2 NW 5.4 0.0 2.5
15:37 17.7 17.6 99 1016.7 3.1 NW 5.4 0.0 2.5
15:39 17.7 17.6 99 1016.7 2.2 NW 5.4 0.0 2.5
15:40 17.7 17.6 99 1016.5 3.8 W 5.4 0.0 2.5
15:41 17.8 17.7 99 1016.7 3.8 NW 5.4 0.0 2.5
15:42 17.8 17.7 99 1016.7 3.8 NW 5.4 0.0 2.5
15:43 17.8 17.7 99 1016.6 4.5 W 5.4 0.0 2.5
15:44 17.8 17.7 99 1016.7 3.8 SW 4.5 0.0 2.5
15:45 17.8 17.7 99 1016.5 2.2 W 4.5 0.0 2.5
15:46 17.8 17.7 99 1016.6 3.1 NW 4.5 0.0 2.5
15:47 17.8 17.7 99 1016.6 3.8 W 4.5 0.0 2.5
15:48 17.9 17.8 99 1016.6 3.8 NW 4.5 0.0 2.5
15:49 18.0 17.9 99 1016.5 3.8 W 4.5 0.0 2.5
15:50 18.1 18.0 99 1016.4 3.8 W 4.5 0.0 2.5
15:51 18.3 18.2 99 1016.4 5.4 NW 6.0 0.0 2.5
15:52 18.4 18.3 99 1016.4 1.6 NW 6.0 0.0 2.5
15:52 18.4 18.3 99 1016.4 1.6 NW 6.0 0.0 2.5
15:53 18.5 18.4 99 1016.3 3.1 NW 6.0 0.0 2.5
15:54 18.7 18.6 99 1016.3 3.8 W 6.0 0.0 2.5
15:55 18.8 18.7 99 1016.4 4.5 NW 6.0 0.0 2.5
15:56 18.9 18.8 99 1016.5 5.4 NW 6.0 0.0 2.5
15:58 19.0 18.9 99 1016.4 4.5 SW 6.0 0.0 2.5
15:59 19.0 18.9 99 1016.3 5.4 NW 6.0 0.0 2.5
16:00 19.0 18.9 99 1016.4 5.4 W 6.0 0.0 2.5
16:01 19.0 18.9 99 1016.4 5.4 NW 5.4 0.0 2.5
16:03 18.8 18.7 99 1016.5 4.5 SW 6.9 0.0 2.5
16:04 18.9 18.8 99 1016.5 3.1 SW 6.9 0.0 2.5
16:04 18.9 18.8 99 1016.5 3.1 SW 6.9 0.0 2.5
16:05 18.9 18.8 99 1016.5 5.4 W 6.9 0.0 2.5
16:06 18.9 18.8 99 1016.4 3.1 NW 6.9 0.0 2.5
16:07 18.9 18.8 99 1016.5 4.5 SW 6.9 0.0 2.5
16:09 18.8 18.7 99 1016.5 5.4 SW 6.9 0.0 2.5
16:09 18.8 18.7 99 1016.5 5.4 SW 6.9 0.0 2.5
16:10 18.8 18.7 99 1016.6 5.4 NW 6.9 0.0 2.5
16:11 18.8 18.7 99 1016.6 3.1 SW 6.9 0.0 2.5
16:13 18.7 18.6 99 1016.4 4.5 SW 5.4 0.0 2.5
16:13 18.7 18.6 99 1016.4 4.5 SW 5.4 0.0 2.5
16:14 18.6 18.5 99 1016.5 3.8 NW 5.4 0.0 2.5
16:15 18.6 18.5 99 1016.4 3.8 W 5.4 0.0 2.5
16:16 18.5 18.4 99 1016.6 4.5 W 6.0 0.0 2.5
16:17 18.4 18.3 99 1016.6 4.5 W 6.0 0.0 2.5
16:18 18.4 18.3 99 1016.6 5.4 W 6.0 0.0 2.5
16:19 18.4 18.3 99 1016.5 5.4 W 6.0 0.0 2.5
16:20 18.4 18.3 99 1016.7 4.5 NW 6.0 0.0 2.5
16:21 18.4 18.3 99 1016.5 3.8 NW 6.0 0.0 2.5
16:22 18.3 18.2 99 1016.5 2.2 NW 6.0 0.0 2.5
16:23 18.3 18.2 99 1016.7 3.8 W 6.0 0.0 2.5
16:24 18.3 18.2 99 1016.5 5.4 NW 6.0 0.0 2.5
16:25 18.2 18.1 99 1016.6 5.4 W 6.0 0.0 2.5
16:26 18.2 18.1 99 1016.5 3.1 NW 5.4 0.0 2.5
16:27 18.2 18.1 99 1016.5 2.2 E 5.4 0.0 2.5
16:29 18.1 18.0 99 1016.6 6.0 NW 6.0 0.0 2.5
16:29 18.1 18.0 99 1016.6 6.0 NW 6.0 0.0 2.5
16:30 18.1 18.0 99 1016.6 6.9 W 6.9 0.0 2.5
16:31 18.0 17.9 99 1016.5 6.9 NW 6.9 0.0 2.5
16:32 17.9 17.8 99 1016.6 4.5 NW 6.9 0.0 2.5
16:33 17.9 17.8 99 1016.6 4.5 NW 6.9 0.0 2.5
16:34 17.8 17.7 99 1016.5 4.5 NW 6.9 0.0 2.5
16:35 17.8 17.7 99 1016.4 5.4 NW 6.9 0.0 2.5
16:36 17.8 17.7 99 1016.5 3.8 NW 6.9 0.0 2.5
16:38 17.8 17.7 99 1016.5 2.2 NW 6.9 0.0 2.5
16:39 17.9 17.8 99 1016.3 5.4 NW 6.9 0.0 2.5
16:39 17.9 17.8 99 1016.3 5.4 NW 6.9 0.0 2.5
16:40 18.0 17.9 99 1016.5 4.5 NW 6.9 0.0 2.5
16:41 18.0 17.9 99 1016.5 5.4 N 6.9 0.0 2.5
16:42 18.1 18.0 99 1016.6 3.8 NW 5.4 0.0 2.5
16:43 18.2 18.1 99 1016.4 5.4 NW 5.4 0.0 2.5
16:44 18.2 18.1 99 1016.4 6.0 SW 6.0 0.0 2.5
16:45 18.2 18.1 99 1016.6 5.4 W 6.0 0.0 2.5
16:46 18.2 18.1 99 1016.6 4.5 W 6.0 0.0 2.5
16:47 18.2 18.1 99 1016.5 4.5 NW 6.0 0.0 2.5
16:48 18.2 18.1 99 1016.7 6.9 NW 6.9 0.0 2.5
16:49 18.1 18.0 99 1016.5 6.0 W 6.9 0.0 2.5
16:50 18.1 18.0 99 1016.5 4.5 W 6.9 0.0 2.5
16:51 18.0 17.9 99 1016.5 4.5 W 6.9 0.0 2.5
16:52 17.9 17.8 99 1016.6 6.0 W 6.9 0.0 2.5
16:53 17.9 17.8 99 1016.5 5.4 W 6.9 0.0 2.5
16:54 17.8 17.7 99 1016.5 4.5 NW 6.9 0.0 2.5
16:55 17.8 17.7 99 1016.6 6.9 NW 6.9 0.0 2.5
16:56 17.8 17.7 99 1016.5 3.1 NW 6.9 0.0 2.5
16:57 17.8 17.7 99 1016.5 4.5 NW 6.9 0.0 2.5
16:58 17.7 17.6 99 1016.5 5.4 NW 6.9 0.0 2.5
17:00 17.7 17.6 99 1016.6 4.5 W 6.9 0.0 2.5
17:01 17.7 17.6 99 1016.6 4.5 W 6.9 0.0 2.5
17:01 17.7 17.6 99 1016.6 4.5 W 6.9 0.0 2.5
17:02 17.6 17.5 99 1016.7 3.1 W 6.9 0.0 2.5
17:03 17.6 17.5 99 1016.6 5.4 W 6.9 0.0 2.5
17:04 17.6 17.5 99 1016.5 3.8 NW 6.9 0.0 2.5
17:05 17.6 17.5 99 1016.6 2.2 NW 6.9 0.0 2.5
17:06 17.7 17.6 99 1016.6 2.2 NW 5.4 0.0 2.5
17:07 17.7 17.6 99 1016.5 3.1 NW 5.4 0.0 2.5
17:07 17.7 17.6 99 1016.5 3.1 NW 5.4 0.0 2.5
17:09 17.8 17.7 99 1016.6 3.1 W 5.4 0.0 2.5
17:10 17.8 17.7 99 1016.7 4.5 NW 5.4 0.0 2.5
17:10 17.8 17.7 99 1016.7 4.5 NW 5.4 0.0 2.5
17:12 17.9 17.8 99 1016.7 2.2 NW 5.4 0.0 2.5
17:13 17.9 17.8 99 1016.6 3.8 NW 4.5 0.0 2.5
17:14 18.0 17.9 99 1016.7 5.4 NW 5.4 0.0 2.5
17:16 18.0 17.9 99 1016.6 2.2 NW 5.4 0.0 2.5
17:17 18.1 18.0 99 1016.7 3.8 NW 5.4 0.0 2.5
17:17 18.1 18.0 99 1016.7 3.8 NW 5.4 0.0 2.5
17:18 18.1 18.0 99 1016.7 4.5 W 5.4 0.0 2.5
17:19 18.2 18.1 99 1016.7 2.2 NW 5.4 0.0 2.5
17:20 18.2 18.1 99 1016.7 3.1 W 5.4 0.0 2.5
17:21 18.2 18.1 99 1016.7 3.1 NW 5.4 0.0 2.5
17:22 18.2 18.1 99 1016.7 3.8 NW 5.4 0.0 2.5
17:23 18.2 18.1 99 1016.7 3.1 NW 5.4 0.0 2.5
17:24 18.1 18.0 99 1016.7 5.4 NW 5.4 0.0 2.5
17:25 18.1 18.0 99 1016.8 5.4 NW 5.4 0.0 2.5
17:25 18.1 18.0 99 1016.8 5.4 NW 5.4 0.0 2.5
17:27 18.1 18.0 99 1016.8 3.1 NW 7.6 0.0 2.5
17:28 18.0 17.9 99 1017.0 4.5 NW 7.6 0.0 2.5
17:29 18.0 17.9 99 1016.8 2.2 NW 7.6 0.0 2.5
17:30 18.0 17.9 99 1016.8 3.8 NW 7.6 0.0 2.5
17:30 18.0 17.9 99 1016.8 3.8 NW 7.6 0.0 2.5
17:32 18.0 17.9 99 1016.8 3.8 NW 7.6 0.0 2.5
17:33 17.9 17.8 99 1016.9 3.1 NW 7.6 0.0 2.5
17:33 17.9 17.8 99 1016.9 3.1 NW 7.6 0.0 2.5
17:35 17.9 17.8 99 1016.9 3.8 NW 7.6 0.0 2.5
17:36 17.8 17.7 99 1016.9 3.1 NW 7.6 0.0 2.5
17:36 17.8 17.7 99 1016.9 3.1 NW 7.6 0.0 2.5
17:38 17.8 17.7 99 1016.9 4.5 NW 4.5 0.0 2.5
17:39 17.9 17.8 99 1016.9 3.1 NW 4.5 0.0 2.5
17:40 17.8 17.7 99 1016.8 6.0 NW 6.9 0.0 2.5
17:42 17.8 17.7 99 1016.9 3.8 NW 6.9 0.0 2.5
17:42 17.8 17.7 99 1016.9 3.8 NW 6.9 0.0 2.5
17:43 17.8 17.7 99 1017.0 4.5 SW 6.9 0.0 2.5
17:44 17.8 17.7 99 1016.9 4.5 SW 6.9 0.0 2.5
17:46 17.8 17.7 99 1016.9 4.5 W 6.9 0.0 2.5
17:46 17.8 17.7 99 1016.9 4.5 W 6.9 0.0 2.5
17:47 17.8 17.7 99 1017.1 5.4 NW 6.9 0.0 2.5
17:48 17.7 17.6 99 1016.7 3.8 NW 6.9 0.0 2.5
17:48 17.7 17.6 99 1016.7 3.8 NW 6.9 0.0 2.5
17:50 17.7 17.6 99 1016.9 2.2 NW 6.0 0.0 2.5
17:51 17.7 17.6 99 1016.9 2.2 W 6.0 0.0 2.5
17:52 17.6 17.5 99 1017.0 7.6 W 7.6 0.0 2.5
17:53 17.6 17.5 99 1016.9 6.9 N 7.6 0.0 2.5
17:54 17.5 17.4 99 1017.0 7.6 SW 7.6 0.0 2.5
17:55 17.5 17.4 99 1017.0 7.6 SW 7.6 0.0 2.5
17:56 17.3 17.2 99 1017.0 5.4 SW 7.6 0.0 2.5
17:57 17.3 17.2 99 1017.1 6.0 W 7.6 0.0 2.5
17:58 17.3 17.2 99 1017.2 4.5 NW 7.6 0.0 2.5
17:59 17.2 17.1 99 1017.0 3.1 NW 7.6 0.0 2.5
18:00 17.2 17.1 99 1016.9 4.5 SW 7.6 0.0 2.5
18:01 17.2 17.1 99 1016.9 4.5 SW 7.6 0.0 2.5
18:03 17.2 17.1 99 1017.0 4.5 SW 7.6 0.0 2.5
18:04 17.2 17.1 99 1017.0 4.5 SW 7.6 0.0 2.5
18:04 17.2 17.1 99 1017.0 4.5 SW 7.6 0.0 2.5
18:05 17.2 17.1 99 1017.0 4.5 SW 7.6 0.0 2.5
18:06 16.8 16.7 99 1017.0 3.8 W 6.9 0.0 2.5
18:07 16.8 16.7 99 1017.2 5.4 NW 6.0 0.0 2.5
18:08 16.7 16.6 99 1017.0 3.1 SW 6.0 0.0 2.5
18:10 16.6 16.5 99 1017.0 5.4 NW 6.0 0.0 2.5
18:10 16.6 16.5 99 1017.0 5.4 NW 6.0 0.0 2.5
18:11 16.6 16.5 99 1017.0 5.4 NW 6.0 0.0 2.5
18:12 16.5 16.4 99 1017.1 4.5 NW 6.0 0.0 2.5
18:12 16.5 16.4 99 1017.1 4.5 NW 6.0 0.0 2.5
18:14 16.4 16.3 99 1017.1 3.1 NW 6.0 0.0 2.5
18:15 16.4 16.3 99 1017.1 7.6 NW 7.6 0.0 2.5
18:16 16.4 16.3 99 1017.1 6.9 W 7.6 0.0 2.5
18:17 16.3 16.2 99 1017.0 8.3 W 8.3 0.0 2.5
18:18 16.3 16.2 99 1017.1 3.8 NW 8.3 0.0 2.5
18:19 16.2 16.1 99 1017.1 4.5 W 8.3 0.0 2.5
18:20 16.2 16.1 99 1017.2 5.4 W 8.3 0.0 2.5
18:21 16.1 16.0 99 1017.1 6.9 W 8.3 0.0 2.5
18:22 16.1 16.0 99 1017.2 6.9 W 8.3 0.0 2.5
18:23 16.0 15.9 99 1017.2 6.0 W 8.3 0.0 2.5
18:24 16.0 15.9 99 1017.2 6.0 N 8.3 0.0 2.5
18:25 15.9 15.8 99 1017.2 4.5 W 8.3 0.0 2.5
18:26 15.9 15.8 99 1017.2 4.5 W 8.3 0.0 2.5
18:27 15.9 15.8 99 1017.2 6.9 NW 6.9 0.0 2.5
18:28 15.8 15.7 99 1017.2 5.4 NW 6.9 0.0 2.5
18:29 15.8 15.7 99 1017.2 6.9 NW 6.9 0.0 2.5
18:30 15.8 15.7 99 1017.2 3.8 NW 6.9 0.0 2.5
18:31 15.8 15.7 99 1017.2 3.8 NW 6.9 0.0 2.5
18:32 15.7 15.6 99 1017.2 6.0 NW 6.9 0.0 2.5
18:33 15.7 15.6 99 1017.2 6.9 NW 6.9 0.0 2.5
18:34 15.7 15.6 99 1017.2 6.0 W 6.9 0.0 2.5
18:35 15.7 15.6 99 1017.1 7.6 W 7.6 0.0 2.5
18:36 15.6 15.5 99 1017.2 8.3 NW 8.3 0.0 2.5
18:37 15.6 15.5 99 1017.1 6.9 S 8.3 0.0 2.5
18:39 15.6 15.5 99 1017.0 6.9 NW 8.3 0.0 2.5
18:40 15.5 15.4 99 1017.1 7.6 NW 8.3 0.0 2.5
18:40 15.5 15.4 99 1017.1 7.6 NW 8.3 0.0 2.5
18:41 15.5 15.4 99 1017.2 5.4 NW 8.3 0.0 2.5
18:42 15.5 15.4 99 1017.2 3.8 W 8.3 0.0 2.5
18:43 15.5 15.4 99 1017.2 3.1 NW 8.3 0.0 2.5
18:44 15.5 15.4 99 1017.2 3.8 NW 8.3 0.0 2.5
18:45 15.4 15.3 99 1017.1 5.4 SW 8.3 0.0 2.5
18:46 15.4 15.3 99 1017.2 6.9 NW 8.3 0.0 2.5
18:47 15.4 15.3 99 1017.2 3.8 NW 7.6 0.0 2.5
18:48 15.4 15.3 99 1017.2 5.4 NW 7.6 0.0 2.5
18:49 15.4 15.3 99 1017.2 5.4 NW 7.6 0.0 2.5
18:50 15.3 15.2 99 1017.2 4.5 N 6.9 0.0 2.5
18:51 15.3 15.2 99 1017.2 2.2 N 6.9 0.0 2.5
18:52 15.3 15.2 99 1017.2 3.8 NW 6.9 0.0 2.5
18:53 15.3 15.2 99 1017.2 7.6 NW 7.6 0.0 2.5
18:54 15.3 15.2 99 1017.2 5.4 NW 7.6 0.0 2.5
18:55 15.3 15.2 99 1017.2 3.1 NW 7.6 0.0 2.5
18:56 15.3 15.2 99 1017.3 3.8 N 7.6 0.0 2.5
18:57 15.3 15.2 99 1017.2 3.8 N 7.6 0.0 2.5
18:58 15.2 15.1 99 1017.4 3.8 N 7.6 0.0 2.5
18:59 15.2 15.1 99 1017.4 3.8 N 7.6 0.0 2.5
18:59 15.2 15.1 99 1017.4 3.8 N 7.6 0.0 2.5
19:01 15.2 15.1 99 1017.4 6.0 W 7.6 0.0 2.5
19:01 15.2 15.1 99 1017.4 6.0 W 7.6 0.0 2.5
19:03 15.2 15.1 99 1017.3 6.0 W 7.6 0.0 2.5
19:04 15.2 15.1 99 1017.4 6.0 W 6.0 0.0 2.5
19:05 15.2 15.1 99 1017.4 6.0 W 6.0 0.0 2.5
19:06 15.0 14.9 99 1017.3 4.5 W 6.9 0.0 2.5
19:07 15.0 14.9 99 1017.5 5.4 NW 6.9 0.0 2.5
19:08 14.9 14.8 99 1017.3 7.6 W 7.6 0.0 2.5
19:08 14.9 14.8 99 1017.3 7.6 W 7.6 0.0 2.5
19:10 14.9 14.8 99 1017.3 6.0 W 7.6 0.0 2.5
19:11 14.8 14.7 99 1017.2 5.4 W 7.6 0.0 2.5
19:11 14.8 14.7 99 1017.2 5.4 W 7.6 0.0 2.5
19:13 14.8 14.7 99 1017.3 6.0 NW 7.6 0.0 2.5
19:14 14.8 14.7 99 1017.2 3.8 W 7.6 0.0 2.5
19:15 14.8 14.7 99 1017.4 4.5 N 7.6 0.0 2.5
19:16 14.7 14.6 99 1017.3 4.5 N 7.6 0.0 2.5
19:17 14.8 14.7 99 1017.3 5.4 NW 7.6 0.0 2.5
19:18 14.7 14.6 99 1017.3 2.2 NW 7.6 0.0 2.5
19:19 14.7 14.6 99 1017.5 2.2 NW 6.0 0.0 2.5
19:20 14.7 14.6 99 1017.5 1.6 NW 6.0 0.0 2.5
19:21 14.7 14.6 99 1017.4 3.8 NW 6.0 0.0 2.5
19:22 14.7 14.6 99 1017.5 3.8 NW 6.0 0.0 2.5
19:22 14.7 14.6 99 1017.5 3.8 NW 6.0 0.0 2.5
19:24 14.7 14.6 99 1017.4 4.5 NW 5.4 0.0 2.5
19:25 14.7 14.6 99 1017.5 6.0 NW 6.0 0.0 2.5
19:26 14.7 14.6 99 1017.4 5.4 N 6.0 0.0 2.5
19:27 14.7 14.6 99 1017.4 3.1 N 6.0 0.0 2.5
19:28 14.7 14.6 99 1017.5 5.4 NW 6.0 0.0 2.5
19:29 14.7 14.6 99 1017.5 4.5 NW 6.0 0.0 2.5
19:30 14.7 14.6 99 1017.5 3.1 N 6.0 0.0 2.5
19:31 14.7 14.6 99 1017.5 3.8 N 6.0 0.0 2.5
19:32 14.7 14.6 99 1017.5 3.1 NW 6.9 0.0 2.5
19:33 14.7 14.6 99 1017.6 4.5 N 6.9 0.0 2.5
19:34 14.7 14.6 99 1017.6 2.2 N 6.9 0.0 2.5
19:35 14.7 14.6 99 1017.6 3.8 NW 6.9 0.0 2.5
19:36 14.7 14.6 99 1017.8 2.2 NW 6.9 0.0 2.5
19:37 14.7 14.6 99 1017.7 2.2 NW 6.9 0.0 2.5
19:38 14.7 14.6 99 1017.7 2.2 NW 6.9 0.0 2.5
19:39 14.7 14.6 99 1017.8 2.2 NW 6.9 0.0 2.5
19:40 14.7 14.6 99 1017.8 3.1 NW 6.9 0.0 2.5
19:41 14.7 14.6 99 1017.9 1.6 NW 6.9 0.0 2.5
19:42 14.7 14.6 99 1017.8 0.7 NW 4.5 0.0 2.5
19:43 14.7 14.6 99 1017.8 0.7 NW 4.5 0.0 2.5
19:46 14.7 14.6 99 1017.7 5.4 N 5.4 0.0 2.5
19:47 14.7 14.6 99 1017.7 4.5 NW 5.4 0.0 2.5
19:48 14.7 14.6 99 1017.6 3.1 NW 5.4 0.0 2.5
19:49 14.7 14.6 99 1017.7 2.2 NW 5.4 0.0 2.5
19:50 14.7 14.6 99 1017.8 2.2 NW 5.4 0.0 2.5
19:51 14.8 14.7 99 1017.7 3.1 NW 5.4 0.0 2.5
19:52 14.7 14.6 99 1017.6 3.8 NW 5.4 0.0 2.5
19:53 14.7 14.6 99 1017.7 2.2 NW 5.4 0.0 2.5
19:53 14.7 14.6 99 1017.7 2.2 NW 5.4 0.0 2.5
19:55 14.7 14.6 99 1017.8 3.1 NW 5.4 0.0 2.5
19:56 14.7 14.6 99 1017.7 3.8 NW 5.4 0.0 2.5
19:57 14.7 14.6 99 1017.8 3.8 NW 5.4 0.0 2.5
19:58 14.7 14.6 99 1017.7 3.8 W 5.4 0.0 2.5
19:59 14.8 14.7 99 1017.8 4.5 W 5.4 0.0 2.5
20:00 14.7 14.6 99 1017.8 3.1 W 5.4 0.0 2.5
20:01 14.7 14.6 99 1017.9 3.1 W 5.4 0.0 2.5
20:01 14.7 14.6 99 1017.9 3.1 W 5.4 0.0 2.5
20:03 14.7 14.6 99 1017.8 3.1 W 5.4 0.0 2.5
20:04 14.7 14.6 99 1018.0 3.1 W 5.4 0.0 2.5
20:05 14.7 14.6 99 1017.8 3.1 W 4.5 0.0 2.5
20:06 14.8 14.7 99 1018.0 3.8 NW 4.5 0.0 2.5
20:08 14.8 14.7 99 1018.1 3.1 NW 4.5 0.0 2.5
20:09 14.8 14.7 99 1017.9 6.9 NW 6.9 0.0 2.5
20:09 14.8 14.7 99 1017.9 6.9 NW 6.9 0.0 2.5
20:11 14.8 14.7 99 1018.0 5.4 NW 6.9 0.0 2.5
20:12 14.8 14.7 99 1018.0 3.1 SW 6.9 0.0 2.5
20:12 14.8 14.7 99 1018.0 3.1 SW 6.9 0.0 2.5
20:14 14.7 14.6 99 1017.9 2.2 W 6.9 0.0 2.5
20:15 14.8 14.7 99 1017.9 2.2 NW 6.9 0.0 2.5
20:16 14.8 14.7 99 1017.8 3.1 NW 6.9 0.0 2.5
20:17 14.8 14.7 99 1017.8 3.1 W 6.9 0.0 2.5
20:18 14.8 14.7 99 1017.9 3.1 W 6.9 0.0 2.5
20:19 14.8 14.7 99 1017.9 3.1 W 6.9 0.0 2.5
20:20 14.8 14.7 99 1017.9 0.7 NW 6.9 0.0 2.5
20:21 14.8 14.7 99 1017.9 0.7 NW 3.1 0.0 2.5
20:21 14.8 14.7 99 1017.9 0.7 NW 3.1 0.0 2.5
20:23 14.8 14.7 99 1017.7 1.6 NW 3.1 0.0 2.5
20:24 14.8 14.7 99 1017.9 2.2 NW 3.1 0.0 2.5
20:25 14.8 14.7 99 1017.9 1.6 NW 3.8 0.0 2.5
20:26 14.8 14.7 99 1017.8 3.8 NW 3.8 0.0 2.5
20:27 14.8 14.7 99 1017.9 2.2 NW 3.8 0.0 2.5
20:27 14.8 14.7 99 1017.9 2.2 NW 3.8 0.0 2.5
20:29 14.8 14.7 99 1018.0 2.2 NW 3.8 0.0 2.5
20:30 14.8 14.7 99 1017.9 4.5 NW 4.5 0.0 2.5
20:31 14.8 14.7 99 1017.7 3.8 NW 4.5 0.0 2.5
20:32 14.8 14.7 99 1017.7 5.4 NW 6.0 0.0 2.5
20:32 14.8 14.7 99 1017.7 5.4 NW 6.0 0.0 2.5
20:34 14.7 14.6 99 1017.8 6.0 NW 6.0 0.0 2.5
20:35 14.8 14.7 99 1017.8 3.8 NW 6.0 0.0 2.5
20:36 14.8 14.7 99 1018.0 3.1 NW 6.0 0.0 2.5
20:37 14.8 14.7 99 1017.7 2.2 NW 6.0 0.0 2.5
20:38 14.8 14.7 99 1017.8 3.1 NW 6.0 0.0 2.5
20:39 14.8 14.7 99 1017.9 3.1 NW 6.0 0.0 2.5
20:39 14.8 14.7 99 1017.9 3.1 NW 6.0 0.0 2.5
20:41 14.8 14.7 99 1018.0 3.1 NW 6.0 0.0 2.5
20:42 14.7 14.6 99 1017.9 2.2 NW 6.0 0.0 2.5
20:43 14.7 14.6 99 1017.7 1.6 NW 6.0 0.0 2.5
20:44 14.7 14.6 99 1017.9 3.1 NW 3.8 0.0 2.5
20:45 14.7 14.6 99 1017.7 2.2 NW 3.1 0.0 2.5
20:46 14.7 14.6 99 1017.8 2.2 NW 3.1 0.0 2.5
20:47 14.7 14.6 99 1017.7 6.0 N 6.0 0.0 2.5
20:47 14.7 14.6 99 1017.7 6.0 N 6.0 0.0 2.5
20:49 14.6 14.5 99 1017.8 2.2 N 6.0 0.0 2.5
20:50 14.6 14.5 99 1017.8 0.7 N 6.0 0.0 2.5
20:51 14.6 14.5 99 1017.9 3.8 W 6.0 0.0 2.5
20:52 14.6 14.5 99 1017.8 1.6 NW 6.0 0.0 2.5
20:53 14.6 14.5 99 1018.0 4.5 NW 6.0 0.0 2.5
20:54 14.6 14.5 99 1017.8 3.8 NW 6.0 0.0 2.5
20:55 14.6 14.5 99 1018.0 3.8 N 6.0 0.0 2.5
20:55 14.6 14.5 99 1018.0 3.8 N 6.0 0.0 2.5
20:57 14.6 14.5 99 1017.8 3.1 N 6.0 0.0 2.5
20:58 14.6 14.5 99 1018.0 4.5 N 4.5 0.0 2.5
20:59 14.6 14.5 99 1017.8 6.9 NW 6.9 0.0 2.5
20:59 14.6 14.5 99 1017.8 6.9 NW 6.9 0.0 2.5
21:01 14.6 14.5 99 1017.9 6.0 N 6.9 0.0 2.5
21:02 14.6 14.5 99 1017.9 6.0 N 6.9 0.0 2.5
21:03 14.6 14.5 99 1017.9 6.0 N 6.9 0.0 2.5
21:03 14.6 14.5 99 1017.9 6.0 N 6.9 0.0 2.5
21:05 14.6 14.5 99 1017.9 6.0 N 6.9 0.0 2.5
21:06 14.5 14.4 99 1017.8 6.0 NW 6.9 0.0 2.5
21:07 14.5 14.4 99 1017.9 2.2 NW 6.9 0.0 2.5
21:08 14.5 14.4 99 1018.0 3.8 NW 6.9 0.0 2.5
21:09 14.5 14.4 99 1017.8 2.2 NW 6.0 0.0 2.5
21:09 14.5 14.4 99 1017.8 2.2 NW 6.0 0.0 2.5
21:11 14.5 14.4 99 1017.9 1.6 NW 6.0 0.0 2.5
21:12 14.5 14.4 99 1017.8 3.8 N 6.0 0.0 2.5
21:13 14.5 14.4 99 1017.9 3.8 N 6.0 0.0 2.5
21:14 14.5 14.4 99 1017.9 5.4 E 6.0 0.0 2.5
21:15 14.5 14.4 99 1017.9 6.0 NW 6.0 0.0 2.5
21:16 14.5 14.4 99 1018.1 4.5 NW 6.0 0.0 2.5
21:16 14.5 14.4 99 1018.1 4.5 NW 6.0 0.0 2.5
21:18 14.5 14.4 99 1018.0 3.1 NW 6.0 0.0 2.5
21:19 14.5 14.4 99 1018.0 3.8 NW 6.0 0.0 2.5
21:20 14.6 14.5 99 1018.0 3.8 NW 6.0 0.0 2.5
21:20 14.6 14.5 99 1018.0 3.8 NW 6.0 0.0 2.5
21:22 14.6 14.5 99 1018.0 6.9 NW 6.9 0.0 2.5
21:22 14.6 14.5 99 1018.0 6.9 NW 6.9 0.0 2.5
21:24 14.5 14.4 99 1018.0 6.0 N 7.6 0.0 2.5
21:25 14.6 14.5 99 1018.1 6.9 N 7.6 0.0 2.5
21:25 14.6 14.5 99 1018.1 6.9 N 7.6 0.0 2.5
21:27 14.5 14.4 99 1018.1 3.1 NW 7.6 0.0 2.5
21:28 14.5 14.4 99 1018.2 5.4 NW 7.6 0.0 2.5
21:29 14.5 14.4 99 1018.1 3.8 NW 7.6 0.0 2.5
21:30 14.5 14.4 99 1018.2 3.8 SW 7.6 0.0 2.5
21:30 14.5 14.4 99 1018.2 3.8 SW 7.6 0.0 2.5
21:32 14.5 14.4 99 1018.2 5.4 NW 7.6 0.0 2.5
21:33 14.5 14.4 99 1018.2 3.1 NW 7.6 0.0 2.5
21:33 14.5 14.4 99 1018.2 3.1 NW 7.6 0.0 2.5
21:35 14.4 14.3 99 1018.1 7.6 NW 7.6 0.0 2.5
21:36 14.4 14.3 99 1018.0 5.4 N 7.6 0.0 2.5
21:36 14.4 14.3 99 1018.0 5.4 N 7.6 0.0 2.5
21:38 14.4 14.3 99 1018.2 3.1 NW 7.6 0.0 2.5
21:39 14.4 14.3 99 1018.0 5.4 NW 7.6 0.0 2.5
21:40 14.3 14.2 99 1018.2 6.0 NW 7.6 0.0 2.5
21:41 14.3 14.2 99 1018.2 4.5 NW 7.6 0.0 2.5
21:41 14.3 14.2 99 1018.2 4.5 NW 7.6 0.0 2.5
21:43 14.3 14.2 99 1018.1 4.5 NW 7.6 0.0 2.5
21:44 14.3 14.2 99 1018.0 5.4 NW 7.6 0.0 2.5
21:45 14.3 14.2 99 1018.2 3.8 NW 6.0 0.0 2.5
21:47 14.3 14.2 99 1018.2 3.8 NW 6.0 0.0 2.5
21:48 14.3 14.2 99 1018.1 4.5 NW 6.0 0.0 2.5
21:49 14.3 14.2 99 1018.1 6.0 N 8.3 0.0 2.5
21:49 14.3 14.2 99 1018.1 6.0 N 8.3 0.0 2.5
21:51 14.2 14.1 99 1017.9 4.5 SW 8.3 0.0 2.5
21:52 14.2 14.1 99 1018.0 3.8 NW 8.3 0.0 2.5
21:53 14.2 14.1 99 1017.9 5.4 NW 8.3 0.0 2.5
21:54 14.2 14.1 99 1018.1 4.5 SW 8.3 0.0 2.5
21:54 14.2 14.1 99 1018.1 4.5 SW 8.3 0.0 2.5
21:56 14.2 14.1 99 1018.0 4.5 NW 8.3 0.0 2.5
21:57 14.2 14.1 99 1018.0 6.9 NW 8.3 0.0 2.5
21:58 14.2 14.1 99 1018.2 3.8 NW 8.3 0.0 2.5
21:59 14.2 14.1 99 1018.1 3.1 NW 6.9 0.0 2.5
22:00 14.2 14.1 99 1018.0 4.5 NW 6.9 0.0 2.5
22:00 14.2 14.1 99 1018.0 4.5 NW 6.9 0.0 2.5
22:02 14.2 14.1 99 1018.0 4.5 NW 6.9 0.0 2.5
22:03 14.2 14.1 99 1018.1 4.5 NW 6.9 0.0 2.5
22:04 14.2 14.1 99 1018.1 4.5 NW 6.9 0.0 2.5
22:04 14.2 14.1 99 1018.1 4.5 NW 6.9 0.0 2.5
22:06 14.2 14.1 99 1018.0 3.8 NW 6.9 0.0 2.5
22:07 14.2 14.1 99 1018.0 8.3 NW 8.3 0.0 2.5
22:08 14.2 14.1 99 1018.1 4.5 NW 8.3 0.0 2.5
22:09 14.2 14.1 99 1018.2 3.8 NW 8.3 0.0 2.5
22:10 14.2 14.1 99 1018.1 4.5 NW 8.3 0.0 2.5
22:11 14.2 14.1 99 1018.2 8.3 NW 8.3 0.0 2.5
22:11 14.2 14.1 99 1018.2 8.3 NW 8.3 0.0 2.5
22:13 14.2 14.1 99 1018.1 3.1 NW 8.3 0.0 2.5
22:13 14.2 14.1 99 1018.1 3.1 NW 8.3 0.0 2.5
22:15 14.2 14.1 99 1018.2 6.0 NW 8.3 0.0 2.5
22:16 14.2 14.1 99 1018.2 5.4 NW 8.3 0.0 2.5
22:16 14.2 14.1 99 1018.2 5.4 NW 8.3 0.0 2.5
22:18 14.2 14.1 99 1018.2 6.0 NW 8.3 0.0 2.5
22:18 14.2 14.1 99 1018.2 6.0 NW 8.3 0.0 2.5
22:20 14.2 14.1 99 1018.2 3.8 NW 8.3 0.0 2.5
22:20 14.2 14.1 99 1018.2 3.8 NW 8.3 0.0 2.5
22:22 14.2 14.1 99 1018.1 3.1 NW 8.3 0.0 2.5
22:23 14.2 14.1 99 1018.2 6.0 NW 8.3 0.0 2.5
22:24 14.2 14.1 99 1018.2 6.0 NW 8.3 0.0 2.5
22:25 14.2 14.1 99 1018.2 6.0 NW 8.3 0.0 2.5
22:25 14.2 14.1 99 1018.2 6.0 NW 8.3 0.0 2.5
22:27 14.2 14.1 99 1018.2 6.0 NW 8.3 0.0 2.5
22:28 14.2 14.1 99 1018.3 8.3 NW 8.3 0.0 2.5
22:29 14.2 14.1 99 1018.2 3.1 NW 8.3 0.0 2.5
22:29 14.2 14.1 99 1018.2 3.1 NW 8.3 0.0 2.5
22:31 14.2 14.1 99 1018.2 8.3 N 8.3 0.0 2.5
22:32 14.2 14.1 99 1018.2 5.4 NW 8.3 0.0 2.5
22:33 14.2 14.1 99 1018.3 5.4 NW 8.3 0.0 2.5
22:33 14.2 14.1 99 1018.3 5.4 NW 8.3 0.0 2.5
22:34 14.2 14.1 99 1018.3 7.6 NW 8.3 0.0 2.5
22:36 14.2 14.1 99 1018.4 8.3 NW 8.3 0.0 2.5
22:37 14.2 14.1 99 1018.3 6.9 NW 8.3 0.0 2.5
22:38 14.2 14.1 99 1018.3 4.5 NW 8.3 0.0 2.5
22:39 14.2 14.1 99 1018.3 3.1 NW 8.3 0.0 2.5
22:40 14.2 14.1 99 1018.1 3.8 NW 8.3 0.0 2.5
22:41 14.2 14.1 99 1018.3 2.2 NW 8.3 0.0 2.5
22:41 14.2 14.1 99 1018.3 2.2 NW 8.3 0.0 2.5
22:42 14.2 14.1 99 1018.3 6.0 NW 8.3 0.0 2.5
22:44 14.2 14.1 99 1018.2 5.4 NW 8.3 0.0 2.5
22:45 14.2 14.1 99 1018.3 5.4 NW 8.3 0.0 2.5
22:46 14.2 14.1 99 1018.3 5.4 NW 7.6 0.0 2.5
22:46 14.2 14.1 99 1018.3 5.4 NW 7.6 0.0 2.5
22:47 14.2 14.1 99 1018.4 3.8 NW 7.6 0.0 2.5
22:49 14.2 14.1 99 1018.4 5.4 NW 7.6 0.0 2.5
22:50 14.2 14.1 99 1018.3 5.4 NW 7.6 0.0 2.5
22:51 14.2 14.1 99 1018.2 4.5 NW 7.6 0.0 2.5
22:52 14.2 14.1 99 1018.2 3.8 NW 7.6 0.0 2.5
22:52 14.2 14.1 99 1018.2 3.8 NW 7.6 0.0 2.5
22:53 14.2 14.1 99 1018.3 5.4 NW 7.6 0.0 2.5
22:55 14.2 14.1 99 1018.3 6.9 NW 6.9 0.0 2.5
22:56 14.2 14.1 99 1018.4 6.9 NW 6.9 0.0 2.5
22:57 14.2 14.1 99 1018.3 4.5 N 6.9 0.0 2.5
22:58 14.1 14.0 99 1018.4 6.0 NW 6.9 0.0 2.5
22:58 14.1 14.0 99 1018.4 6.0 NW 6.9 0.0 2.5
23:00 14.2 14.1 99 1018.3 3.1 NW 6.9 0.0 2.5
23:01 14.2 14.1 99 1018.4 3.1 NW 6.9 0.0 2.5
23:02 14.2 14.1 99 1018.4 3.1 NW 6.9 0.0 2.5
23:02 14.2 14.1 99 1018.4 3.1 NW 6.9 0.0 2.5
23:04 14.2 14.1 99 1018.4 3.1 NW 6.9 0.0 2.5
23:04 14.2 14.1 99 1018.4 3.1 NW 6.9 0.0 2.5
23:06 14.1 14.0 99 1018.5 6.0 NW 8.3 0.0 2.5
23:06 14.1 14.0 99 1018.5 6.0 NW 8.3 0.0 2.5
23:07 14.2 14.1 99 1018.4 2.2 NW 8.3 0.0 2.5
23:09 14.2 14.1 99 1018.4 3.8 NW 8.3 0.0 2.5
23:10 14.2 14.1 99 1018.4 3.8 NW 8.3 0.0 2.5
23:10 14.2 14.1 99 1018.4 3.8 NW 8.3 0.0 2.5
23:11 14.2 14.1 99 1018.5 3.8 NW 8.3 0.0 2.5
23:13 14.2 14.1 99 1018.6 4.5 NW 8.3 0.0 2.5
23:14 14.2 14.1 99 1018.6 4.5 NW 8.3 0.0 2.5
23:14 14.2 14.1 99 1018.6 4.5 NW 8.3 0.0 2.5
23:16 14.2 14.1 99 1018.6 5.4 NW 6.9 0.0 2.5
23:17 14.2 14.1 99 1018.5 5.4 NW 6.9 0.0 2.5
23:18 14.2 14.1 99 1018.5 6.0 N 6.9 0.0 2.5
23:18 14.2 14.1 99 1018.5 6.0 N 6.9 0.0 2.5
23:20 14.2 14.1 99 1018.5 6.9 NW 6.9 0.0 2.5
23:20 14.2 14.1 99 1018.5 6.9 NW 6.9 0.0 2.5
23:21 14.2 14.1 99 1018.5 5.4 NW 6.9 0.0 2.5
23:23 14.1 14.0 99 1018.5 5.4 NW 6.9 0.0 2.5
23:24 14.1 14.0 99 1018.5 3.1 NW 6.9 0.0 2.5
23:24 14.1 14.0 99 1018.5 3.1 NW 6.9 0.0 2.5
23:25 14.1 14.0 99 1018.6 3.8 NW 6.9 0.0 2.5
23:26 14.1 14.0 99 1018.6 6.0 N 6.9 0.0 2.5
23:28 14.0 13.9 99 1018.6 3.8 N 6.9 0.0 2.5
23:29 14.0 13.9 99 1018.5 3.8 NW 6.9 0.0 2.5
23:29 14.0 13.9 99 1018.5 3.8 NW 6.9 0.0 2.5
23:31 13.9 13.8 99 1018.5 5.4 NW 6.9 0.0 2.5
23:31 13.9 13.8 99 1018.5 5.4 NW 6.9 0.0 2.5
23:32 13.9 13.8 99 1018.5 6.0 NW 6.0 0.0 2.5
23:34 13.9 13.8 99 1018.5 4.5 NW 6.0 0.0 2.5
23:35 13.8 13.7 99 1018.6 7.6 NW 7.6 0.0 2.5
23:36 13.8 13.7 99 1018.5 4.5 NW 7.6 0.0 2.5
23:36 13.8 13.7 99 1018.5 4.5 NW 7.6 0.0 2.5
23:37 13.8 13.7 99 1018.5 5.4 N 7.6 0.0 2.5
23:38 13.7 13.6 99 1018.6 6.0 NW 7.6 0.0 2.5
23:40 13.7 13.6 99 1018.6 6.0 NW 7.6 0.0 2.5
23:41 13.7 13.6 99 1018.6 3.1 N 7.6 0.0 2.5
23:42 13.7 13.6 99 1018.6 1.6 N 7.6 0.0 2.5
23:43 13.6 13.5 99 1018.6 1.6 N 7.6 0.0 2.5
23:43 13.6 13.5 99 1018.6 1.6 N 7.6 0.0 2.5
23:45 13.6 13.5 99 1018.6 2.2 NW 6.0 0.0 2.5
23:45 13.6 13.5 99 1018.6 2.2 NW 6.0 0.0 2.5
23:47 13.6 13.5 99 1018.7 3.1 NE 6.0 0.0 2.5
23:47 13.6 13.5 99 1018.7 3.1 NE 6.0 0.0 2.5
23:48 13.6 13.5 99 1018.5 3.1 N 6.0 0.0 2.5
23:50 13.5 13.4 99 1018.5 3.8 N 4.5 0.0 2.5
23:50 13.5 13.4 99 1018.5 3.8 N 4.5 0.0 2.5
23:52 13.5 13.4 99 1018.6 2.2 NW 4.5 0.0 2.5
23:52 13.5 13.4 99 1018.6 2.2 NW 4.5 0.0 2.5
23:53 13.5 13.4 99 1018.7 3.8 NW 4.5 0.0 2.5
23:55 13.4 13.3 99 1018.6 3.1 NW 4.5 0.0 2.5
23:56 13.4 13.3 99 1018.5 5.4 NW 5.4 0.0 2.5
23:57 13.4 13.3 99 1018.4 3.8 NW 5.4 0.0 2.5
23:57 13.4 13.3 99 1018.4 3.8 NW 5.4 0.0 2.5
23:58 13.4 13.3 99 1018.4 3.1 NW 5.4 0.0 2.5
23:59 13.4 13.3 99 1018.5 3.8 NW 5.4 0.0 2.5
23:59 13.4 13.3 99 1018.5 3.8 NW 5.4 0.0 2.5

UK - WEATHER STATION TOPSITES - UK World Weather Websites

This is a private weather station, never base important decisions or events on data from this weather station. Although every effort has been made to make the data as accurate as possible it does not meet MetOffice standards. It is proved as a guide of local weather conditions. We accept no liability for any loss which may arise from use of the data.

Copyright © Carnkie Weather 2009 - 2017.